Wetterdaten: Sonntag, 12.03.2017
Datum Zeit Temp. A. Feuchte A. Luftdruck Regen Wind Richtung Richtung Sonnenschein ET UV Solar Taupunkt Windchill Windben Empfang
12.03.2017 00:00 3,1 C 84 % 1020,2 hPa 0,0 l/m 4,0 km/h (1 Bft) O-NO 73 0 min 0,000 mm 0,0 UV-I 0 W/m 0,7 C 3,1 C 6,4 km/h (2 Bft) 100,00 %
12.03.2017 00:02 3,2 C 84 % 1020,1 hPa 0,0 l/m 4,1 km/h (1 Bft) O-NO 72 0 min 0,000 mm 0,0 UV-I 0 W/m 0,8 C 3,2 C 6,4 km/h (2 Bft) 97,30 %
12.03.2017 00:04 3,2 C 84 % 1020,1 hPa 0,0 l/m 5,2 km/h (1 Bft) O-NO 73 0 min 0,000 mm 0,0 UV-I 0 W/m 0,8 C 3,2 C 6,4 km/h (2 Bft) 100,00 %
12.03.2017 00:06 3,2 C 84 % 1020,1 hPa 0,0 l/m 5,3 km/h (1 Bft) O-NO 71 0 min 0,000 mm 0,0 UV-I 0 W/m 0,8 C 3,2 C 6,4 km/h (2 Bft) 98,00 %
12.03.2017 00:08 3,2 C 83 % 1020,1 hPa 0,0 l/m 5,8 km/h (2 Bft) O-NO 73 0 min 0,000 mm 0,0 UV-I 0 W/m 0,6 C 3,2 C 8,0 km/h (2 Bft) 97,73 %
12.03.2017 00:10 3,3 C 83 % 1020,1 hPa 0,0 l/m 5,8 km/h (2 Bft) O-NO 76 0 min 0,000 mm 0,0 UV-I 0 W/m 0,7 C 3,3 C 8,0 km/h (2 Bft) 97,87 %
12.03.2017 00:12 3,3 C 83 % 1020,1 hPa 0,0 l/m 5,0 km/h (1 Bft) O-NO 77 0 min 0,000 mm 0,0 UV-I 0 W/m 0,7 C 3,3 C 8,0 km/h (2 Bft) 98,00 %
12.03.2017 00:14 3,3 C 83 % 1020,1 hPa 0,0 l/m 5,2 km/h (1 Bft) O-NO 75 0 min 0,000 mm 0,0 UV-I 0 W/m 0,7 C 3,3 C 6,4 km/h (2 Bft) 97,37 %
12.03.2017 00:16 3,3 C 83 % 1020,0 hPa 0,0 l/m 4,4 km/h (1 Bft) O-NO 75 0 min 0,000 mm 0,0 UV-I 0 W/m 0,7 C 3,3 C 6,4 km/h (2 Bft) 98,00 %
12.03.2017 00:18 3,3 C 83 % 1020,0 hPa 0,0 l/m 4,4 km/h (1 Bft) O-NO 75 0 min 0,000 mm 0,0 UV-I 0 W/m 0,7 C 3,3 C 6,4 km/h (2 Bft) 97,87 %
12.03.2017 00:20 3,3 C 83 % 1020,0 hPa 0,0 l/m 3,9 km/h (1 Bft) O-NO 75 0 min 0,000 mm 0,0 UV-I 0 W/m 0,7 C 3,3 C 4,8 km/h (1 Bft) 100,00 %
12.03.2017 00:22 3,3 C 83 % 1020,0 hPa 0,0 l/m 3,9 km/h (1 Bft) O-NO 75 0 min 0,000 mm 0,0 UV-I 0 W/m 0,7 C 3,3 C 4,8 km/h (1 Bft) 97,56 %
12.03.2017 00:24 3,3 C 83 % 1019,9 hPa 0,0 l/m 3,5 km/h (1 Bft) O-NO 75 0 min 0,000 mm 0,0 UV-I 0 W/m 0,7 C 3,3 C 6,4 km/h (2 Bft) 100,00 %
12.03.2017 00:26 3,3 C 83 % 1019,9 hPa 0,0 l/m 4,4 km/h (1 Bft) O-NO 76 0 min 0,000 mm 0,0 UV-I 0 W/m 0,7 C 3,3 C 6,4 km/h (2 Bft) 98,11 %
12.03.2017 00:28 3,3 C 83 % 1019,9 hPa 0,0 l/m 4,7 km/h (1 Bft) O-NO 78 0 min 0,000 mm 0,0 UV-I 0 W/m 0,7 C 3,3 C 6,4 km/h (2 Bft) 97,22 %
12.03.2017 00:30 3,3 C 83 % 1019,9 hPa 0,0 l/m 4,5 km/h (1 Bft) O-NO 78 0 min 0,000 mm 0,0 UV-I 0 W/m 0,7 C 3,3 C 6,4 km/h (2 Bft) 100,00 %
12.03.2017 00:32 3,3 C 82 % 1019,9 hPa 0,0 l/m 4,6 km/h (1 Bft) O-NO 77 0 min 0,000 mm 0,0 UV-I 0 W/m 0,5 C 3,3 C 4,8 km/h (1 Bft) 97,87 %
12.03.2017 00:34 3,4 C 82 % 1019,9 hPa 0,0 l/m 3,4 km/h (1 Bft) O-NO 76 0 min 0,000 mm 0,0 UV-I 0 W/m 0,6 C 3,4 C 4,8 km/h (1 Bft) 100,00 %
12.03.2017 00:36 3,4 C 82 % 1019,9 hPa 0,0 l/m 3,5 km/h (1 Bft) O-NO 76 0 min 0,000 mm 0,0 UV-I 0 W/m 0,6 C 3,4 C 4,8 km/h (1 Bft) 98,00 %
12.03.2017 00:38 3,3 C 82 % 1019,9 hPa 0,0 l/m 3,7 km/h (1 Bft) O-NO 74 0 min 0,000 mm 0,0 UV-I 0 W/m 0,5 C 3,3 C 6,4 km/h (2 Bft) 98,11 %
12.03.2017 00:40 3,1 C 82 % 1019,9 hPa 0,0 l/m 4,3 km/h (1 Bft) O-NO 74 0 min 0,000 mm 0,0 UV-I 0 W/m 0,3 C 3,1 C 6,4 km/h (2 Bft) 100,00 %
12.03.2017 00:42 2,9 C 83 % 1019,9 hPa 0,0 l/m 2,0 km/h (1 Bft) O-NO 72 0 min 0,000 mm 0,0 UV-I 0 W/m 0,3 C 2,9 C 4,8 km/h (1 Bft) 96,00 %
12.03.2017 00:44 2,7 C 83 % 1019,9 hPa 0,0 l/m 4,2 km/h (1 Bft) O-NO 68 0 min 0,000 mm 0,0 UV-I 0 W/m 0,1 C 2,7 C 4,8 km/h (1 Bft) 100,00 %
12.03.2017 00:46 2,6 C 84 % 1019,9 hPa 0,0 l/m 3,4 km/h (1 Bft) O-NO 68 0 min 0,000 mm 0,0 UV-I 0 W/m 0,2 C 2,6 C 4,8 km/h (1 Bft) 100,00 %
12.03.2017 00:48 2,5 C 85 % 1019,9 hPa 0,0 l/m 2,7 km/h (1 Bft) O-NO 68 0 min 0,000 mm 0,0 UV-I 0 W/m 0,2 C 2,5 C 3,2 km/h (1 Bft) 94,74 %
12.03.2017 00:50 2,6 C 85 % 1019,9 hPa 0,0 l/m 2,5 km/h (1 Bft) O-NO 68 0 min 0,000 mm 0,0 UV-I 0 W/m 0,3 C 2,6 C 3,2 km/h (1 Bft) 100,00 %
12.03.2017 00:52 2,6 C 85 % 1019,9 hPa 0,0 l/m 1,9 km/h (1 Bft) O-NO 68 0 min 0,000 mm 0,0 UV-I 0 W/m 0,3 C 2,6 C 3,2 km/h (1 Bft) 93,62 %
12.03.2017 00:54 2,6 C 85 % 1019,8 hPa 0,0 l/m 2,3 km/h (1 Bft) O-NO 68 0 min 0,000 mm 0,0 UV-I 0 W/m 0,3 C 2,6 C 3,2 km/h (1 Bft) 100,00 %
12.03.2017 00:56 2,6 C 85 % 1019,8 hPa 0,0 l/m 2,1 km/h (1 Bft) O-NO 68 0 min 0,000 mm 0,0 UV-I 0 W/m 0,3 C 2,6 C 3,2 km/h (1 Bft) 92,45 %
12.03.2017 00:58 2,6 C 85 % 1019,8 hPa 0,0 l/m 1,9 km/h (1 Bft) O-NO 68 0 min 0,000 mm 0,0 UV-I 0 W/m 0,3 C 2,6 C 3,2 km/h (1 Bft) 95,12 %
12.03.2017 01:00 2,4 C 85 % 1019,8 hPa 0,0 l/m 2,0 km/h (1 Bft) O-NO 68 0 min 0,000 mm 0,0 UV-I 0 W/m 0,1 C 2,4 C 3,2 km/h (1 Bft) 93,62 %
12.03.2017 01:01 2,4 C 86 % 1019,8 hPa 0,0 l/m 2,7 km/h (1 Bft) O-NO 68 0 min 0,000 mm 0,0 UV-I 0 W/m 0,3 C 2,4 C 3,2 km/h (1 Bft) 97,73 %
12.03.2017 01:04 2,3 C 86 % 1019,8 hPa 0,0 l/m 2,4 km/h (1 Bft) O-NO 68 0 min 0,000 mm 0,0 UV-I 0 W/m 0,2 C 2,3 C 3,2 km/h (1 Bft) 97,96 %
12.03.2017 01:06 2,3 C 86 % 1019,8 hPa 0,0 l/m 3,0 km/h (1 Bft) O-NO 68 0 min 0,000 mm 0,0 UV-I 0 W/m 0,2 C 2,3 C 4,8 km/h (1 Bft) 98,00 %
12.03.2017 01:08 2,2 C 86 % 1019,8 hPa 0,0 l/m 3,0 km/h (1 Bft) O-NO 68 0 min 0,000 mm 0,0 UV-I 0 W/m 0,1 C 2,2 C 4,8 km/h (1 Bft) 98,21 %
12.03.2017 01:10 2,3 C 86 % 1019,8 hPa 0,0 l/m 1,9 km/h (1 Bft) O-NO 68 0 min 0,000 mm 0,0 UV-I 0 W/m 0,2 C 2,3 C 3,2 km/h (1 Bft) 97,44 %
12.03.2017 01:12 2,3 C 86 % 1019,8 hPa 0,0 l/m 2,6 km/h (1 Bft) O-NO 68 0 min 0,000 mm 0,0 UV-I 0 W/m 0,2 C 2,3 C 3,2 km/h (1 Bft) 98,00 %
12.03.2017 01:14 2,3 C 86 % 1019,7 hPa 0,0 l/m 2,5 km/h (1 Bft) O-NO 68 0 min 0,000 mm 0,0 UV-I 0 W/m 0,2 C 2,3 C 3,2 km/h (1 Bft) 97,87 %
12.03.2017 01:16 2,3 C 86 % 1019,7 hPa 0,0 l/m 2,5 km/h (1 Bft) O-NO 68 0 min 0,000 mm 0,0 UV-I 0 W/m 0,2 C 2,3 C 3,2 km/h (1 Bft) 97,56 %
12.03.2017 01:18 2,3 C 86 % 1019,7 hPa 0,0 l/m 2,2 km/h (1 Bft) O-NO 68 0 min 0,000 mm 0,0 UV-I 0 W/m 0,2 C 2,3 C 3,2 km/h (1 Bft) 92,86 %
12.03.2017 01:20 2,3 C 86 % 1019,7 hPa 0,0 l/m 2,0 km/h (1 Bft) O-NO 68 0 min 0,000 mm 0,0 UV-I 0 W/m 0,2 C 2,3 C 3,2 km/h (1 Bft) 95,65 %
12.03.2017 01:22 2,3 C 85 % 1019,7 hPa 0,0 l/m 1,8 km/h (1 Bft) O-NO 68 0 min 0,000 mm 0,0 UV-I 0 W/m 0,0 C 2,3 C 3,2 km/h (1 Bft) 93,85 %
12.03.2017 01:24 2,3 C 85 % 1019,7 hPa 0,0 l/m 2,1 km/h (1 Bft) O-NO 68 0 min 0,000 mm 0,0 UV-I 0 W/m 0,0 C 2,3 C 3,2 km/h (1 Bft) 98,00 %
12.03.2017 01:26 2,3 C 85 % 1019,7 hPa 0,0 l/m 1,5 km/h (1 Bft) O-NO 68 0 min 0,000 mm 0,0 UV-I 0 W/m 0,0 C 2,3 C 3,2 km/h (1 Bft) 93,62 %
12.03.2017 01:28 2,3 C 86 % 1019,7 hPa 0,0 l/m 0,4 km/h (0 Bft) O-NO 68 0 min 0,000 mm 0,0 UV-I 0 W/m 0,2 C 2,3 C 1,6 km/h (1 Bft) 89,36 %
12.03.2017 01:30 2,3 C 85 % 1019,7 hPa 0,0 l/m 0,7 km/h (0 Bft) O-NO 68 0 min 0,000 mm 0,0 UV-I 0 W/m 0,0 C 2,3 C 3,2 km/h (1 Bft) 95,74 %
12.03.2017 01:32 2,3 C 85 % 1019,7 hPa 0,0 l/m 2,3 km/h (1 Bft) O-NO 68 0 min 0,000 mm 0,0 UV-I 0 W/m 0,0 C 2,3 C 3,2 km/h (1 Bft) 95,12 %
12.03.2017 01:34 2,3 C 85 % 1019,7 hPa 0,0 l/m 2,7 km/h (1 Bft) O-NO 68 0 min 0,000 mm 0,0 UV-I 0 W/m 0,0 C 2,3 C 3,2 km/h (1 Bft) 93,62 %
12.03.2017 01:36 2,2 C 85 % 1019,7 hPa 0,0 l/m 3,2 km/h (1 Bft) O-NO 68 0 min 0,000 mm 0,0 UV-I 0 W/m -0,1 C 2,2 C 4,8 km/h (1 Bft) 94,34 %
12.03.2017 01:38 2,1 C 85 % 1019,7 hPa 0,0 l/m 3,2 km/h (1 Bft) O-NO 68 0 min 0,000 mm 0,0 UV-I 0 W/m -0,2 C 2,1 C 4,8 km/h (1 Bft) 92,11 %
12.03.2017 01:40 2,1 C 86 % 1019,7 hPa 0,0 l/m 3,1 km/h (1 Bft) O-NO 68 0 min 0,000 mm 0,0 UV-I 0 W/m 0,0 C 2,1 C 3,2 km/h (1 Bft) 92,45 %
12.03.2017 01:42 2,0 C 86 % 1019,7 hPa 0,0 l/m 2,1 km/h (1 Bft) O-NO 68 0 min 0,000 mm 0,0 UV-I 0 W/m -0,1 C 2,0 C 3,2 km/h (1 Bft) 96,00 %
12.03.2017 01:44 1,9 C 86 % 1019,6 hPa 0,0 l/m 2,5 km/h (1 Bft) O-NO 68 0 min 0,000 mm 0,0 UV-I 0 W/m -0,2 C 1,9 C 3,2 km/h (1 Bft) 94,29 %
12.03.2017 01:46 1,7 C 86 % 1019,6 hPa 0,0 l/m 3,1 km/h (1 Bft) O-NO 68 0 min 0,000 mm 0,0 UV-I 0 W/m -0,4 C 1,7 C 4,8 km/h (1 Bft) 91,07 %
12.03.2017 01:48 1,6 C 87 % 1019,5 hPa 0,0 l/m 2,7 km/h (1 Bft) O-NO 68 0 min 0,000 mm 0,0 UV-I 0 W/m -0,3 C 1,6 C 3,2 km/h (1 Bft) 93,18 %
12.03.2017 01:50 1,6 C 87 % 1019,6 hPa 0,0 l/m 3,0 km/h (1 Bft) O-NO 68 0 min 0,000 mm 0,0 UV-I 0 W/m -0,3 C 1,6 C 4,8 km/h (1 Bft) 94,00 %
12.03.2017 01:52 1,6 C 88 % 1019,6 hPa 0,0 l/m 3,0 km/h (1 Bft) O-NO 68 0 min 0,000 mm 0,0 UV-I 0 W/m -0,2 C 1,6 C 4,8 km/h (1 Bft) 94,00 %
12.03.2017 01:54 1,6 C 88 % 1019,6 hPa 0,0 l/m 3,0 km/h (1 Bft) O-NO 68 0 min 0,000 mm 0,0 UV-I 0 W/m -0,2 C 1,6 C 3,2 km/h (1 Bft) 92,31 %
12.03.2017 01:56 1,7 C 87 % 1019,6 hPa 0,0 l/m 3,3 km/h (1 Bft) O-NO 68 0 min 0,000 mm 0,0 UV-I 0 W/m -0,2 C 1,7 C 4,8 km/h (1 Bft) 95,83 %
12.03.2017 01:58 1,7 C 87 % 1019,6 hPa 0,0 l/m 2,4 km/h (1 Bft) O-NO 68 0 min 0,000 mm 0,0 UV-I 0 W/m -0,2 C 1,7 C 3,2 km/h (1 Bft) 93,62 %
12.03.2017 02:00 1,6 C 87 % 1019,5 hPa 0,0 l/m 2,7 km/h (1 Bft) O-NO 68 0 min 0,000 mm 0,0 UV-I 0 W/m -0,3 C 1,6 C 3,2 km/h (1 Bft) 95,74 %
12.03.2017 02:02 1,6 C 87 % 1019,5 hPa 0,0 l/m 2,5 km/h (1 Bft) O-NO 68 0 min 0,000 mm 0,0 UV-I 0 W/m -0,3 C 1,6 C 4,8 km/h (1 Bft) 97,87 %
12.03.2017 02:04 1,5 C 87 % 1019,6 hPa 0,0 l/m 2,6 km/h (1 Bft) O-NO 68 0 min 0,000 mm 0,0 UV-I 0 W/m -0,4 C 1,5 C 4,8 km/h (1 Bft) 96,00 %
12.03.2017 02:06 1,6 C 88 % 1019,5 hPa 0,0 l/m 3,1 km/h (1 Bft) O-NO 68 0 min 0,000 mm 0,0 UV-I 0 W/m -0,2 C 1,6 C 4,8 km/h (1 Bft) 100,00 %
12.03.2017 02:08 1,5 C 88 % 1019,5 hPa 0,0 l/m 3,0 km/h (1 Bft) O-NO 68 0 min 0,000 mm 0,0 UV-I 0 W/m -0,3 C 1,5 C 4,8 km/h (1 Bft) 96,23 %
12.03.2017 02:10 1,5 C 88 % 1019,4 hPa 0,0 l/m 2,9 km/h (1 Bft) O-NO 68 0 min 0,000 mm 0,0 UV-I 0 W/m -0,3 C 1,5 C 4,8 km/h (1 Bft) 98,11 %
12.03.2017 02:12 1,5 C 88 % 1019,4 hPa 0,0 l/m 3,0 km/h (1 Bft) O-NO 68 0 min 0,000 mm 0,0 UV-I 0 W/m -0,3 C 1,5 C 4,8 km/h (1 Bft) 100,00 %
12.03.2017 02:14 1,4 C 88 % 1019,4 hPa 0,0 l/m 3,0 km/h (1 Bft) O-NO 68 0 min 0,000 mm 0,0 UV-I 0 W/m -0,4 C 1,4 C 4,8 km/h (1 Bft) 96,23 %
12.03.2017 02:16 1,3 C 88 % 1019,4 hPa 0,0 l/m 3,6 km/h (1 Bft) O-NO 68 0 min 0,000 mm 0,0 UV-I 0 W/m -0,5 C 1,3 C 4,8 km/h (1 Bft) 100,00 %
12.03.2017 02:18 1,3 C 89 % 1019,4 hPa 0,0 l/m 2,2 km/h (1 Bft) O-NO 68 0 min 0,000 mm 0,0 UV-I 0 W/m -0,3 C 1,3 C 3,2 km/h (1 Bft) 95,74 %
12.03.2017 02:20 1,4 C 89 % 1019,4 hPa 0,0 l/m 1,4 km/h (1 Bft) O-NO 68 0 min 0,000 mm 0,0 UV-I 0 W/m -0,2 C 1,4 C 3,2 km/h (1 Bft) 92,68 %
12.03.2017 02:22 1,4 C 88 % 1019,4 hPa 0,0 l/m 0,1 km/h (0 Bft) O-NO 68 0 min 0,000 mm 0,0 UV-I 0 W/m -0,4 C 1,4 C 1,6 km/h (1 Bft) 100,00 %
12.03.2017 02:24 1,5 C 88 % 1019,4 hPa 0,0 l/m 0,7 km/h (0 Bft) O-NO 68 0 min 0,000 mm 0,0 UV-I 0 W/m -0,3 C 1,5 C 1,6 km/h (1 Bft) 100,00 %
12.03.2017 02:26 1,5 C 88 % 1019,4 hPa 0,0 l/m 2,0 km/h (1 Bft) O-NO 68 0 min 0,000 mm 0,0 UV-I 0 W/m -0,3 C 1,5 C 3,2 km/h (1 Bft) 97,96 %
12.03.2017 02:28 1,4 C 88 % 1019,4 hPa 0,0 l/m 3,6 km/h (1 Bft) O-NO 68 0 min 0,000 mm 0,0 UV-I 0 W/m -0,4 C 1,4 C 4,8 km/h (1 Bft) 97,92 %
12.03.2017 02:30 1,3 C 88 % 1019,4 hPa 0,0 l/m 3,5 km/h (1 Bft) O-NO 68 0 min 0,000 mm 0,0 UV-I 0 W/m -0,5 C 1,3 C 4,8 km/h (1 Bft) 100,00 %
12.03.2017 02:32 1,3 C 88 % 1019,3 hPa 0,0 l/m 2,9 km/h (1 Bft) O-NO 68 0 min 0,000 mm 0,0 UV-I 0 W/m -0,5 C 1,3 C 3,2 km/h (1 Bft) 100,00 %
12.03.2017 02:34 1,3 C 88 % 1019,3 hPa 0,0 l/m 1,9 km/h (1 Bft) O-NO 68 0 min 0,000 mm 0,0 UV-I 0 W/m -0,5 C 1,3 C 3,2 km/h (1 Bft) 100,00 %
12.03.2017 02:36 1,3 C 88 % 1019,3 hPa 0,0 l/m 2,2 km/h (1 Bft) O-NO 68 0 min 0,000 mm 0,0 UV-I 0 W/m -0,5 C 1,3 C 3,2 km/h (1 Bft) 100,00 %
12.03.2017 02:38 1,3 C 88 % 1019,2 hPa 0,0 l/m 2,2 km/h (1 Bft) O-NO 68 0 min 0,000 mm 0,0 UV-I 0 W/m -0,5 C 1,3 C 3,2 km/h (1 Bft) 100,00 %
12.03.2017 02:40 1,3 C 89 % 1019,3 hPa 0,0 l/m 1,0 km/h (0 Bft) O-NO 68 0 min 0,000 mm 0,0 UV-I 0 W/m -0,3 C 1,3 C 3,2 km/h (1 Bft) 100,00 %
12.03.2017 02:42 1,3 C 88 % 1019,2 hPa 0,0 l/m 0,4 km/h (0 Bft) O-NO 68 0 min 0,000 mm 0,0 UV-I 0 W/m -0,5 C 1,3 C 1,6 km/h (1 Bft) 100,00 %
12.03.2017 02:44 1,3 C 88 % 1019,2 hPa 0,0 l/m 0,0 km/h (0 Bft) O-NO 68 0 min 0,000 mm 0,0 UV-I 0 W/m -0,5 C 1,3 C 0,0 km/h (0 Bft) 98,00 %
12.03.2017 02:46 1,1 C 88 % 1019,2 hPa 0,0 l/m 0,0 km/h (0 Bft) O-NO 68 0 min 0,000 mm 0,0 UV-I 0 W/m -0,7 C 1,1 C 0,0 km/h (0 Bft) 97,37 %
12.03.2017 02:48 0,9 C 88 % 1019,2 hPa 0,0 l/m 0,0 km/h (0 Bft) O-NO 68 0 min 0,000 mm 0,0 UV-I 0 W/m -0,9 C 0,9 C 0,0 km/h (0 Bft) 98,11 %
12.03.2017 02:50 0,8 C 89 % 1019,2 hPa 0,0 l/m 0,0 km/h (0 Bft) O-NO 68 0 min 0,000 mm 0,0 UV-I 0 W/m -0,8 C 0,8 C 0,0 km/h (0 Bft) 100,00 %
12.03.2017 02:52 0,7 C 89 % 1019,2 hPa 0,0 l/m 1,5 km/h (1 Bft) O-NO 68 0 min 0,000 mm 0,0 UV-I 0 W/m -0,9 C 0,7 C 3,2 km/h (1 Bft) 100,00 %
12.03.2017 02:54 0,6 C 90 % 1019,2 hPa 0,0 l/m 1,2 km/h (1 Bft) O-NO 68 0 min 0,000 mm 0,0 UV-I 0 W/m -0,8 C 0,6 C 3,2 km/h (1 Bft) 100,00 %
12.03.2017 02:56 0,6 C 90 % 1019,1 hPa 0,0 l/m 0,0 km/h (0 Bft) O-NO 68 0 min 0,000 mm 0,0 UV-I 0 W/m -0,8 C 0,6 C 1,6 km/h (1 Bft) 96,00 %
12.03.2017 02:58 0,6 C 90 % 1019,1 hPa 0,0 l/m 0,5 km/h (0 Bft) O-NO 68 0 min 0,000 mm 0,0 UV-I 0 W/m -0,8 C 0,6 C 1,6 km/h (1 Bft) 100,00 %
12.03.2017 03:00 0,6 C 91 % 1019,1 hPa 0,0 l/m 2,0 km/h (1 Bft) O-NO 68 0 min 0,000 mm 0,0 UV-I 0 W/m -0,7 C 0,6 C 3,2 km/h (1 Bft) 100,00 %
12.03.2017 03:02 0,6 C 90 % 1019,1 hPa 0,0 l/m 2,4 km/h (1 Bft) O-NO 68 0 min 0,000 mm 0,0 UV-I 0 W/m -0,8 C 0,6 C 3,2 km/h (1 Bft) 100,00 %
12.03.2017 03:04 0,5 C 90 % 1019,1 hPa 0,0 l/m 1,4 km/h (1 Bft) O-NO 68 0 min 0,000 mm 0,0 UV-I 0 W/m -0,9 C 0,5 C 3,2 km/h (1 Bft) 100,00 %
12.03.2017 03:06 0,3 C 90 % 1019,0 hPa 0,0 l/m 0,0 km/h (0 Bft) O-NO 68 0 min 0,000 mm 0,0 UV-I 0 W/m -1,1 C 0,3 C 0,0 km/h (0 Bft) 97,87 %
12.03.2017 03:08 0,2 C 90 % 1019,0 hPa 0,0 l/m 0,0 km/h (0 Bft) O-NO 68 0 min 0,000 mm 0,0 UV-I 0 W/m -1,2 C 0,2 C 0,0 km/h (0 Bft) 96,00 %
12.03.2017 03:10 0,2 C 91 % 1019,0 hPa 0,0 l/m 0,0 km/h (0 Bft) O-NO 68 0 min 0,000 mm 0,0 UV-I 0 W/m -1,1 C 0,2 C 0,0 km/h (0 Bft) 100,00 %
12.03.2017 03:12 0,2 C 92 % 1018,9 hPa 0,0 l/m 0,0 km/h (0 Bft) O-NO 68 0 min 0,000 mm 0,0 UV-I 0 W/m -0,9 C 0,2 C 0,0 km/h (0 Bft) 96,67 %
12.03.2017 03:14 0,2 C 92 % 1018,9 hPa 0,0 l/m 0,0 km/h (0 Bft) O-NO 68 0 min 0,000 mm 0,0 UV-I 0 W/m -0,9 C 0,2 C 0,0 km/h (0 Bft) 98,00 %
12.03.2017 03:16 0,3 C 92 % 1018,9 hPa 0,0 l/m 0,6 km/h (0 Bft) O-NO 68 0 min 0,000 mm 0,0 UV-I 0 W/m -0,8 C 0,3 C 1,6 km/h (1 Bft) 100,00 %
12.03.2017 03:18 0,4 C 92 % 1019,0 hPa 0,0 l/m 0,8 km/h (0 Bft) O-NO 68 0 min 0,000 mm 0,0 UV-I 0 W/m -0,7 C 0,4 C 1,6 km/h (1 Bft) 100,00 %
12.03.2017 03:20 0,4 C 91 % 1018,9 hPa 0,0 l/m 0,0 km/h (0 Bft) O-NO 68 0 min 0,000 mm 0,0 UV-I 0 W/m -0,9 C 0,4 C 0,0 km/h (0 Bft) 100,00 %
12.03.2017 03:22 0,4 C 91 % 1018,9 hPa 0,0 l/m 0,0 km/h (0 Bft) O-NO 68 0 min 0,000 mm 0,0 UV-I 0 W/m -0,9 C 0,4 C 0,0 km/h (0 Bft) 96,23 %
12.03.2017 03:24 0,3 C 91 % 1019,0 hPa 0,0 l/m 0,1 km/h (0 Bft) O-NO 68 0 min 0,000 mm 0,0 UV-I 0 W/m -1,0 C 0,3 C 1,6 km/h (1 Bft) 97,14 %
12.03.2017 03:26 0,2 C 91 % 1018,9 hPa 0,0 l/m 2,6 km/h (1 Bft) O-NO 68 0 min 0,000 mm 0,0 UV-I 0 W/m -1,1 C 0,2 C 3,2 km/h (1 Bft) 98,21 %
12.03.2017 03:28 0,0 C 91 % 1018,9 hPa 0,0 l/m 2,7 km/h (1 Bft) O-NO 68 0 min 0,000 mm 0,0 UV-I 0 W/m -1,3 C 0,0 C 3,2 km/h (1 Bft) 98,11 %
12.03.2017 03:30 0,0 C 92 % 1018,9 hPa 0,0 l/m 3,0 km/h (1 Bft) O-NO 68 0 min 0,000 mm 0,0 UV-I 0 W/m -1,1 C 0,0 C 4,8 km/h (1 Bft) 97,73 %
12.03.2017 03:32 0,2 C 93 % 1018,9 hPa 0,0 l/m 2,1 km/h (1 Bft) O-NO 68 0 min 0,000 mm 0,0 UV-I 0 W/m -0,8 C 0,2 C 3,2 km/h (1 Bft) 100,00 %
12.03.2017 03:34 0,4 C 93 % 1018,9 hPa 0,0 l/m 2,3 km/h (1 Bft) O-NO 68 0 min 0,000 mm 0,0 UV-I 0 W/m -0,6 C 0,4 C 3,2 km/h (1 Bft) 100,00 %
12.03.2017 03:36 0,6 C 92 % 1018,8 hPa 0,0 l/m 2,3 km/h (1 Bft) O-NO 68 0 min 0,000 mm 0,0 UV-I 0 W/m -0,5 C 0,6 C 3,2 km/h (1 Bft) 100,00 %
12.03.2017 03:38 0,6 C 92 % 1018,8 hPa 0,0 l/m 2,6 km/h (1 Bft) O-NO 68 0 min 0,000 mm 0,0 UV-I 0 W/m -0,5 C 0,6 C 3,2 km/h (1 Bft) 97,87 %
12.03.2017 03:40 0,6 C 91 % 1018,8 hPa 0,0 l/m 2,3 km/h (1 Bft) O-NO 68 0 min 0,000 mm 0,0 UV-I 0 W/m -0,7 C 0,6 C 3,2 km/h (1 Bft) 100,00 %
12.03.2017 03:42 0,7 C 91 % 1018,8 hPa 0,0 l/m 1,8 km/h (1 Bft) O-NO 68 0 min 0,000 mm 0,0 UV-I 0 W/m -0,6 C 0,7 C 3,2 km/h (1 Bft) 100,00 %
12.03.2017 03:44 0,7 C 91 % 1018,8 hPa 0,0 l/m 3,0 km/h (1 Bft) O-NO 68 0 min 0,000 mm 0,0 UV-I 0 W/m -0,6 C 0,7 C 4,8 km/h (1 Bft) 100,00 %
12.03.2017 03:46 0,6 C 91 % 1018,8 hPa 0,0 l/m 3,3 km/h (1 Bft) O-NO 68 0 min 0,000 mm 0,0 UV-I 0 W/m -0,7 C 0,6 C 4,8 km/h (1 Bft) 100,00 %
12.03.2017 03:48 0,6 C 91 % 1018,8 hPa 0,0 l/m 3,3 km/h (1 Bft) O-NO 68 0 min 0,000 mm 0,0 UV-I 0 W/m -0,7 C 0,6 C 4,8 km/h (1 Bft) 98,44 %
12.03.2017 03:50 0,5 C 91 % 1018,7 hPa 0,0 l/m 4,2 km/h (1 Bft) O-NO 68 0 min 0,000 mm 0,0 UV-I 0 W/m -0,8 C 0,5 C 4,8 km/h (1 Bft) 100,00 %
12.03.2017 03:52 0,4 C 91 % 1018,6 hPa 0,0 l/m 4,2 km/h (1 Bft) O-NO 68 0 min 0,000 mm 0,0 UV-I 0 W/m -0,9 C 0,4 C 4,8 km/h (1 Bft) 100,00 %
12.03.2017 03:54 0,4 C 91 % 1018,6 hPa 0,0 l/m 3,1 km/h (1 Bft) O-NO 68 0 min 0,000 mm 0,0 UV-I 0 W/m -0,9 C 0,4 C 4,8 km/h (1 Bft) 94,44 %
12.03.2017 03:56 0,4 C 91 % 1018,7 hPa 0,0 l/m 3,0 km/h (1 Bft) O-NO 68 0 min 0,000 mm 0,0 UV-I 0 W/m -0,9 C 0,4 C 3,2 km/h (1 Bft) 98,00 %
12.03.2017 03:58 0,4 C 91 % 1018,8 hPa 0,0 l/m 2,8 km/h (1 Bft) O-NO 68 0 min 0,000 mm 0,0 UV-I 0 W/m -0,9 C 0,4 C 3,2 km/h (1 Bft) 98,00 %
12.03.2017 04:00 0,5 C 91 % 1018,8 hPa 0,0 l/m 2,9 km/h (1 Bft) O-NO 68 0 min 0,000 mm 0,0 UV-I 0 W/m -0,8 C 0,5 C 4,8 km/h (1 Bft) 96,00 %
12.03.2017 04:02 0,6 C 91 % 1018,7 hPa 0,0 l/m 4,1 km/h (1 Bft) O-NO 68 0 min 0,000 mm 0,0 UV-I 0 W/m -0,7 C 0,6 C 4,8 km/h (1 Bft) 95,65 %
12.03.2017 04:04 0,7 C 91 % 1018,7 hPa 0,0 l/m 2,2 km/h (1 Bft) O-NO 68 0 min 0,000 mm 0,0 UV-I 0 W/m -0,6 C 0,7 C 4,8 km/h (1 Bft) 93,62 %
12.03.2017 04:06 0,7 C 90 % 1018,8 hPa 0,0 l/m 2,9 km/h (1 Bft) O-NO 68 0 min 0,000 mm 0,0 UV-I 0 W/m -0,7 C 0,7 C 3,2 km/h (1 Bft) 97,37 %
12.03.2017 04:08 0,6 C 90 % 1018,8 hPa 0,0 l/m 3,2 km/h (1 Bft) O-NO 68 0 min 0,000 mm 0,0 UV-I 0 W/m -0,8 C 0,6 C 4,8 km/h (1 Bft) 94,34 %
12.03.2017 04:10 0,5 C 89 % 1018,8 hPa 0,0 l/m 3,6 km/h (1 Bft) O-NO 68 0 min 0,000 mm 0,0 UV-I 0 W/m -1,1 C 0,5 C 4,8 km/h (1 Bft) 97,14 %
12.03.2017 04:12 0,4 C 90 % 1018,8 hPa 0,0 l/m 3,7 km/h (1 Bft) O-NO 68 0 min 0,000 mm 0,0 UV-I 0 W/m -1,0 C 0,4 C 4,8 km/h (1 Bft) 96,43 %
12.03.2017 04:14 0,6 C 91 % 1018,7 hPa 0,0 l/m 3,1 km/h (1 Bft) O-NO 68 0 min 0,000 mm 0,0 UV-I 0 W/m -0,7 C 0,6 C 4,8 km/h (1 Bft) 98,11 %
12.03.2017 04:16 0,7 C 91 % 1018,7 hPa 0,0 l/m 2,1 km/h (1 Bft) O-NO 68 0 min 0,000 mm 0,0 UV-I 0 W/m -0,6 C 0,7 C 3,2 km/h (1 Bft) 97,56 %
12.03.2017 04:18 0,8 C 90 % 1018,8 hPa 0,0 l/m 1,4 km/h (1 Bft) O-NO 68 0 min 0,000 mm 0,0 UV-I 0 W/m -0,6 C 0,8 C 3,2 km/h (1 Bft) 95,74 %
12.03.2017 04:20 0,8 C 90 % 1018,8 hPa 0,0 l/m 0,8 km/h (0 Bft) O-NO 68 0 min 0,000 mm 0,0 UV-I 0 W/m -0,6 C 0,8 C 1,6 km/h (1 Bft) 98,00 %
12.03.2017 04:22 0,7 C 90 % 1018,8 hPa 0,0 l/m 1,9 km/h (1 Bft) O-NO 68 0 min 0,000 mm 0,0 UV-I 0 W/m -0,7 C 0,7 C 3,2 km/h (1 Bft) 96,00 %
12.03.2017 04:24 0,6 C 89 % 1018,8 hPa 0,0 l/m 2,4 km/h (1 Bft) O-NO 68 0 min 0,000 mm 0,0 UV-I 0 W/m -1,0 C 0,6 C 3,2 km/h (1 Bft) 94,74 %
12.03.2017 04:26 0,4 C 89 % 1018,7 hPa 0,0 l/m 3,3 km/h (1 Bft) O-NO 68 0 min 0,000 mm 0,0 UV-I 0 W/m -1,2 C 0,4 C 4,8 km/h (1 Bft) 92,86 %
12.03.2017 04:28 0,3 C 90 % 1018,8 hPa 0,0 l/m 3,6 km/h (1 Bft) O-NO 68 0 min 0,000 mm 0,0 UV-I 0 W/m -1,1 C 0,3 C 4,8 km/h (1 Bft) 96,00 %
12.03.2017 04:30 0,3 C 90 % 1018,8 hPa 0,0 l/m 3,8 km/h (1 Bft) O-NO 68 0 min 0,000 mm 0,0 UV-I 0 W/m -1,1 C 0,3 C 4,8 km/h (1 Bft) 98,18 %
12.03.2017 04:32 0,4 C 91 % 1018,8 hPa 0,0 l/m 3,2 km/h (1 Bft) O-NO 68 0 min 0,000 mm 0,0 UV-I 0 W/m -0,9 C 0,4 C 4,8 km/h (1 Bft) 95,74 %
12.03.2017 04:34 0,5 C 90 % 1018,8 hPa 0,0 l/m 3,4 km/h (1 Bft) O-NO 68 0 min 0,000 mm 0,0 UV-I 0 W/m -0,9 C 0,5 C 4,8 km/h (1 Bft) 97,44 %
12.03.2017 04:36 0,4 C 90 % 1018,8 hPa 0,0 l/m 4,0 km/h (1 Bft) O-NO 68 0 min 0,000 mm 0,0 UV-I 0 W/m -1,0 C 0,4 C 6,4 km/h (2 Bft) 97,87 %
12.03.2017 04:38 0,3 C 90 % 1018,8 hPa 0,0 l/m 3,0 km/h (1 Bft) O-NO 68 0 min 0,000 mm 0,0 UV-I 0 W/m -1,1 C 0,3 C 4,8 km/h (1 Bft) 98,00 %
12.03.2017 04:40 0,2 C 90 % 1018,7 hPa 0,0 l/m 3,0 km/h (1 Bft) O-NO 68 0 min 0,000 mm 0,0 UV-I 0 W/m -1,2 C 0,2 C 4,8 km/h (1 Bft) 100,00 %
12.03.2017 04:42 0,3 C 91 % 1018,8 hPa 0,0 l/m 3,3 km/h (1 Bft) O-NO 68 0 min 0,000 mm 0,0 UV-I 0 W/m -1,0 C 0,3 C 4,8 km/h (1 Bft) 100,00 %
12.03.2017 04:44 0,4 C 91 % 1018,8 hPa 0,0 l/m 1,7 km/h (1 Bft) O-NO 68 0 min 0,000 mm 0,0 UV-I 0 W/m -0,9 C 0,4 C 3,2 km/h (1 Bft) 97,56 %
12.03.2017 04:46 0,5 C 90 % 1018,8 hPa 0,0 l/m 2,8 km/h (1 Bft) O-NO 68 0 min 0,000 mm 0,0 UV-I 0 W/m -0,9 C 0,5 C 4,8 km/h (1 Bft) 97,73 %
12.03.2017 04:48 0,6 C 90 % 1018,8 hPa 0,0 l/m 2,3 km/h (1 Bft) O-NO 68 0 min 0,000 mm 0,0 UV-I 0 W/m -0,8 C 0,6 C 3,2 km/h (1 Bft) 98,00 %
12.03.2017 04:50 0,6 C 90 % 1018,8 hPa 0,0 l/m 3,2 km/h (1 Bft) O-NO 68 0 min 0,000 mm 0,0 UV-I 0 W/m -0,8 C 0,6 C 6,4 km/h (2 Bft) 100,00 %
12.03.2017 04:52 0,6 C 90 % 1018,8 hPa 0,0 l/m 4,2 km/h (1 Bft) O-NO 68 0 min 0,000 mm 0,0 UV-I 0 W/m -0,8 C 0,6 C 8,0 km/h (2 Bft) 100,00 %
12.03.2017 04:54 0,6 C 89 % 1018,8 hPa 0,0 l/m 4,3 km/h (1 Bft) O-NO 68 0 min 0,000 mm 0,0 UV-I 0 W/m -1,0 C 0,6 C 6,4 km/h (2 Bft) 100,00 %
12.03.2017 04:56 0,6 C 89 % 1018,8 hPa 0,0 l/m 4,8 km/h (1 Bft) O-NO 67 0 min 0,000 mm 0,0 UV-I 0 W/m -1,0 C 0,6 C 6,4 km/h (2 Bft) 100,00 %
12.03.2017 04:58 0,5 C 89 % 1018,8 hPa 0,0 l/m 6,0 km/h (2 Bft) O-NO 76 0 min 0,000 mm 0,0 UV-I 0 W/m -1,1 C 0,5 C 8,0 km/h (2 Bft) 100,00 %
12.03.2017 05:00 0,6 C 89 % 1018,8 hPa 0,0 l/m 4,2 km/h (1 Bft) O 90 0 min 0,000 mm 0,0 UV-I 0 W/m -1,0 C 0,6 C 6,4 km/h (2 Bft) 97,87 %
12.03.2017 05:02 0,5 C 89 % 1018,8 hPa 0,0 l/m 10,0 km/h (2 Bft) O 83 0 min 0,000 mm 0,0 UV-I 0 W/m -1,1 C -2,9 C 14,5 km/h (3 Bft) 95,74 %
12.03.2017 05:04 0,4 C 89 % 1018,9 hPa 0,0 l/m 12,9 km/h (3 Bft) O 80 0 min 0,000 mm 0,0 UV-I 0 W/m -1,2 C -5,2 C 16,1 km/h (3 Bft) 100,00 %
12.03.2017 05:06 0,5 C 90 % 1018,8 hPa 0,0 l/m 10,7 km/h (2 Bft) O 91 0 min 0,000 mm 0,0 UV-I 0 W/m -0,9 C -3,5 C 16,1 km/h (3 Bft) 97,37 %
12.03.2017 05:08 0,6 C 90 % 1018,8 hPa 0,0 l/m 8,4 km/h (2 Bft) O-NO 68 0 min 0,000 mm 0,0 UV-I 0 W/m -0,8 C -1,4 C 12,9 km/h (3 Bft) 100,00 %
12.03.2017 05:10 0,6 C 89 % 1018,8 hPa 0,0 l/m 9,1 km/h (2 Bft) O-NO 65 0 min 0,000 mm 0,0 UV-I 0 W/m -1,0 C -2,0 C 14,5 km/h (3 Bft) 98,00 %
12.03.2017 05:12 0,7 C 89 % 1018,8 hPa 0,0 l/m 9,6 km/h (2 Bft) O-NO 67 0 min 0,000 mm 0,0 UV-I 0 W/m -0,9 C -2,3 C 16,1 km/h (3 Bft) 98,00 %
12.03.2017 05:14 0,7 C 89 % 1018,7 hPa 0,0 l/m 10,8 km/h (2 Bft) O 80 0 min 0,000 mm 0,0 UV-I 0 W/m -0,9 C -3,3 C 16,1 km/h (3 Bft) 97,37 %
12.03.2017 05:16 0,7 C 89 % 1018,7 hPa 0,0 l/m 9,3 km/h (2 Bft) O-NO 57 0 min 0,000 mm 0,0 UV-I 0 W/m -0,9 C -2,1 C 12,9 km/h (3 Bft) 98,31 %
12.03.2017 05:18 0,6 C 89 % 1018,7 hPa 0,0 l/m 9,1 km/h (2 Bft) O-NO 65 0 min 0,000 mm 0,0 UV-I 0 W/m -1,0 C -2,0 C 14,5 km/h (3 Bft) 97,37 %
12.03.2017 05:20 0,6 C 89 % 1018,7 hPa 0,0 l/m 8,3 km/h (2 Bft) O-NO 61 0 min 0,000 mm 0,0 UV-I 0 W/m -1,0 C -1,3 C 12,9 km/h (3 Bft) 98,11 %
12.03.2017 05:22 0,6 C 89 % 1018,7 hPa 0,0 l/m 7,4 km/h (2 Bft) O-NO 78 0 min 0,000 mm 0,0 UV-I 0 W/m -1,0 C -0,4 C 12,9 km/h (3 Bft) 94,74 %
12.03.2017 05:24 0,6 C 89 % 1018,7 hPa 0,0 l/m 6,9 km/h (2 Bft) O 79 0 min 0,000 mm 0,0 UV-I 0 W/m -1,0 C 0,1 C 11,3 km/h (2 Bft) 97,87 %
12.03.2017 05:26 0,6 C 89 % 1018,7 hPa 0,0 l/m 6,1 km/h (2 Bft) O-NO 76 0 min 0,000 mm 0,0 UV-I 0 W/m -1,0 C 0,6 C 11,3 km/h (2 Bft) 98,00 %
12.03.2017 05:28 0,5 C 89 % 1018,7 hPa 0,0 l/m 5,6 km/h (1 Bft) O-NO 69 0 min 0,000 mm 0,0 UV-I 0 W/m -1,1 C 0,5 C 8,0 km/h (2 Bft) 97,87 %
12.03.2017 05:30 0,5 C 89 % 1018,7 hPa 0,0 l/m 6,0 km/h (2 Bft) O-NO 74 0 min 0,000 mm 0,0 UV-I 0 W/m -1,1 C 0,5 C 8,0 km/h (2 Bft) 98,00 %
12.03.2017 05:32 0,5 C 89 % 1018,7 hPa 0,0 l/m 7,9 km/h (2 Bft) O-NO 77 0 min 0,000 mm 0,0 UV-I 0 W/m -1,1 C -1,0 C 12,9 km/h (3 Bft) 97,56 %
12.03.2017 05:34 0,4 C 89 % 1018,7 hPa 0,0 l/m 2,0 km/h (1 Bft) O 86 0 min 0,000 mm 0,0 UV-I 0 W/m -1,2 C 0,4 C 4,8 km/h (1 Bft) 97,87 %
12.03.2017 05:36 0,4 C 89 % 1018,7 hPa 0,0 l/m 3,6 km/h (1 Bft) O 86 0 min 0,000 mm 0,0 UV-I 0 W/m -1,2 C 0,4 C 6,4 km/h (2 Bft) 97,87 %
12.03.2017 05:38 0,4 C 89 % 1018,6 hPa 0,0 l/m 3,0 km/h (1 Bft) O 86 0 min 0,000 mm 0,0 UV-I 0 W/m -1,2 C 0,4 C 4,8 km/h (1 Bft) 95,74 %
12.03.2017 05:40 0,3 C 89 % 1018,7 hPa 0,0 l/m 2,2 km/h (1 Bft) O 82 0 min 0,000 mm 0,0 UV-I 0 W/m -1,3 C 0,3 C 4,8 km/h (1 Bft) 96,23 %
12.03.2017 05:42 0,3 C 89 % 1018,6 hPa 0,0 l/m 4,7 km/h (1 Bft) O-NO 68 0 min 0,000 mm 0,0 UV-I 0 W/m -1,3 C 0,3 C 6,4 km/h (2 Bft) 97,37 %
12.03.2017 05:44 0,2 C 90 % 1018,6 hPa 0,0 l/m 5,1 km/h (1 Bft) O 79 0 min 0,000 mm 0,0 UV-I 0 W/m -1,2 C 0,2 C 8,0 km/h (2 Bft) 98,00 %
12.03.2017 05:46 0,3 C 90 % 1018,6 hPa 0,0 l/m 4,0 km/h (1 Bft) O-NO 74 0 min 0,000 mm 0,0 UV-I 0 W/m -1,1 C 0,3 C 6,4 km/h (2 Bft) 94,44 %
12.03.2017 05:48 0,3 C 90 % 1018,7 hPa 0,0 l/m 2,4 km/h (1 Bft) O-NO 72 0 min 0,000 mm 0,0 UV-I 0 W/m -1,1 C 0,3 C 4,8 km/h (1 Bft) 96,88 %
12.03.2017 05:50 0,2 C 89 % 1018,6 hPa 0,0 l/m 1,0 km/h (0 Bft) O-NO 72 0 min 0,000 mm 0,0 UV-I 0 W/m -1,4 C 0,2 C 3,2 km/h (1 Bft) 94,87 %
12.03.2017 05:52 0,0 C 89 % 1018,6 hPa 0,0 l/m 1,7 km/h (1 Bft) O-NO 72 0 min 0,000 mm 0,0 UV-I 0 W/m -1,6 C 0,0 C 3,2 km/h (1 Bft) 95,74 %
12.03.2017 05:54 -0,2 C 89 % 1018,7 hPa 0,0 l/m 1,7 km/h (1 Bft) O-NO 72 0 min 0,000 mm 0,0 UV-I 0 W/m -1,8 C -0,2 C 3,2 km/h (1 Bft) 96,00 %
12.03.2017 05:56 -0,3 C 90 % 1018,6 hPa 0,0 l/m 1,3 km/h (1 Bft) O-NO 72 0 min 0,000 mm 0,0 UV-I 0 W/m -1,7 C -0,3 C 3,2 km/h (1 Bft) 95,74 %
12.03.2017 05:58 -0,3 C 91 % 1018,6 hPa 0,0 l/m 1,2 km/h (1 Bft) O-NO 72 0 min 0,000 mm 0,0 UV-I 0 W/m -1,6 C -0,3 C 1,6 km/h (1 Bft) 94,34 %
12.03.2017 06:00 -0,3 C 91 % 1018,6 hPa 0,0 l/m 1,5 km/h (1 Bft) O-NO 72 0 min 0,000 mm 0,0 UV-I 0 W/m -1,6 C -0,3 C 3,2 km/h (1 Bft) 97,37 %
12.03.2017 06:02 -0,3 C 91 % 1018,6 hPa 0,0 l/m 2,5 km/h (1 Bft) O-NO 72 0 min 0,000 mm 0,0 UV-I 0 W/m -1,6 C -0,3 C 3,2 km/h (1 Bft) 98,00 %
12.03.2017 06:04 -0,3 C 91 % 1018,6 hPa 0,0 l/m 3,4 km/h (1 Bft) O-NO 72 0 min 0,000 mm 0,0 UV-I 0 W/m -1,6 C -0,3 C 4,8 km/h (1 Bft) 91,49 %
12.03.2017 06:06 -0,3 C 91 % 1018,6 hPa 0,0 l/m 3,2 km/h (1 Bft) O-NO 72 0 min 0,000 mm 0,0 UV-I 0 W/m -1,6 C -0,3 C 4,8 km/h (1 Bft) 97,87 %
12.03.2017 06:08 -0,3 C 91 % 1018,6 hPa 0,0 l/m 1,8 km/h (1 Bft) O-NO 72 0 min 0,000 mm 0,0 UV-I 0 W/m -1,6 C -0,3 C 3,2 km/h (1 Bft) 98,11 %
12.03.2017 06:10 -0,3 C 91 % 1018,6 hPa 0,0 l/m 2,7 km/h (1 Bft) O-NO 72 0 min 0,000 mm 0,0 UV-I 0 W/m -1,6 C -0,3 C 3,2 km/h (1 Bft) 97,37 %
12.03.2017 06:12 -0,3 C 91 % 1018,6 hPa 0,0 l/m 3,2 km/h (1 Bft) O-NO 71 0 min 0,000 mm 0,0 UV-I 2 W/m -1,6 C -0,3 C 4,8 km/h (1 Bft) 92,45 %
12.03.2017 06:14 -0,4 C 91 % 1018,7 hPa 0,0 l/m 1,6 km/h (1 Bft) O-NO 71 0 min 0,000 mm 0,0 UV-I 5 W/m -1,7 C -0,4 C 3,2 km/h (1 Bft) 95,92 %
12.03.2017 06:16 -0,5 C 91 % 1018,7 hPa 0,0 l/m 3,5 km/h (1 Bft) O-NO 67 0 min 0,000 mm 0,0 UV-I 5 W/m -1,8 C -0,5 C 4,8 km/h (1 Bft) 94,74 %
12.03.2017 06:18 -0,6 C 92 % 1018,7 hPa 0,0 l/m 3,2 km/h (1 Bft) O-NO 67 0 min 0,000 mm 0,0 UV-I 5 W/m -1,7 C -0,6 C 4,8 km/h (1 Bft) 90,57 %
12.03.2017 06:20 -0,6 C 92 % 1018,7 hPa 0,0 l/m 2,8 km/h (1 Bft) O-NO 67 0 min 0,000 mm 0,0 UV-I 6 W/m -1,7 C -0,6 C 4,8 km/h (1 Bft) 94,00 %
12.03.2017 06:22 -0,6 C 92 % 1018,8 hPa 0,0 l/m 2,9 km/h (1 Bft) O-NO 67 0 min 0,000 mm 0,0 UV-I 7 W/m -1,7 C -0,6 C 4,8 km/h (1 Bft) 96,30 %
12.03.2017 06:24 -0,6 C 92 % 1018,8 hPa 0,0 l/m 3,4 km/h (1 Bft) NO 55 0 min 0,000 mm 0,0 UV-I 7 W/m -1,7 C -0,6 C 4,8 km/h (1 Bft) 90,91 %
12.03.2017 06:26 -0,6 C 92 % 1018,8 hPa 0,0 l/m 3,5 km/h (1 Bft) NO 55 0 min 0,000 mm 0,0 UV-I 8 W/m -1,7 C -0,6 C 4,8 km/h (1 Bft) 96,00 %
12.03.2017 06:28 -0,6 C 92 % 1018,8 hPa 0,0 l/m 3,8 km/h (1 Bft) NO 55 0 min 0,000 mm 0,0 UV-I 9 W/m -1,7 C -0,6 C 6,4 km/h (2 Bft) 98,11 %
12.03.2017 06:30 -0,5 C 92 % 1018,7 hPa 0,0 l/m 2,9 km/h (1 Bft) NO 55 0 min 0,000 mm 0,0 UV-I 10 W/m -1,6 C -0,5 C 4,8 km/h (1 Bft) 97,73 %
12.03.2017 06:32 -0,5 C 92 % 1018,8 hPa 0,0 l/m 3,1 km/h (1 Bft) NO 55 0 min 0,000 mm 0,0 UV-I 11 W/m -1,6 C -0,5 C 4,8 km/h (1 Bft) 97,44 %
12.03.2017 06:34 -0,4 C 92 % 1018,8 hPa 0,0 l/m 2,9 km/h (1 Bft) NO 55 2 min 0,000 mm 0,0 UV-I 12 W/m -1,5 C -0,4 C 4,8 km/h (1 Bft) 98,00 %
12.03.2017 06:36 -0,4 C 92 % 1018,9 hPa 0,0 l/m 3,7 km/h (1 Bft) NO 54 2 min 0,000 mm 0,0 UV-I 15 W/m -1,5 C -0,4 C 4,8 km/h (1 Bft) 98,21 %
12.03.2017 06:38 -0,6 C 92 % 1018,8 hPa 0,0 l/m 4,5 km/h (1 Bft) NO 43 2 min 0,000 mm 0,0 UV-I 17 W/m -1,7 C -0,6 C 6,4 km/h (2 Bft) 97,37 %
12.03.2017 06:40 -0,6 C 92 % 1018,9 hPa 0,0 l/m 3,0 km/h (1 Bft) NO 43 0 min 0,000 mm 0,0 UV-I 19 W/m -1,7 C -0,6 C 4,8 km/h (1 Bft) 98,00 %
12.03.2017 06:42 -0,5 C 92 % 1018,9 hPa 0,0 l/m 4,3 km/h (1 Bft) NO 43 0 min 0,000 mm 0,0 UV-I 21 W/m -1,6 C -0,5 C 6,4 km/h (2 Bft) 96,00 %
12.03.2017 06:44 -0,6 C 92 % 1018,9 hPa 0,0 l/m 3,2 km/h (1 Bft) NO 43 0 min 0,000 mm 0,0 UV-I 25 W/m -1,7 C -0,6 C 6,4 km/h (2 Bft) 92,11 %
12.03.2017 06:46 -0,6 C 92 % 1018,9 hPa 0,0 l/m 3,7 km/h (1 Bft) NO 43 0 min 0,000 mm 0,0 UV-I 28 W/m -1,7 C -0,6 C 6,4 km/h (2 Bft) 98,00 %
12.03.2017 06:48 -0,6 C 92 % 1018,9 hPa 0,0 l/m 1,7 km/h (1 Bft) NO 43 2 min 0,000 mm 0,0 UV-I 34 W/m -1,7 C -0,6 C 3,2 km/h (1 Bft) 98,00 %
12.03.2017 06:50 -0,6 C 93 % 1019,0 hPa 0,0 l/m 1,6 km/h (1 Bft) NO 43 2 min 0,000 mm 0,0 UV-I 41 W/m -1,6 C -0,6 C 3,2 km/h (1 Bft) 98,00 %
12.03.2017 06:52 -0,6 C 93 % 1019,0 hPa 0,0 l/m 2,3 km/h (1 Bft) NO 43 2 min 0,000 mm 0,0 UV-I 45 W/m -1,6 C -0,6 C 4,8 km/h (1 Bft) 97,37 %
12.03.2017 06:54 -0,6 C 92 % 1018,9 hPa 0,0 l/m 1,6 km/h (1 Bft) NO 43 2 min 0,000 mm 0,0 UV-I 51 W/m -1,7 C -0,6 C 3,2 km/h (1 Bft) 97,78 %
12.03.2017 06:56 -0,6 C 92 % 1019,0 hPa 0,0 l/m 2,7 km/h (1 Bft) NO 43 2 min 0,000 mm 0,0 UV-I 55 W/m -1,7 C -0,6 C 3,2 km/h (1 Bft) 93,62 %
12.03.2017 06:58 -0,6 C 93 % 1018,9 hPa 0,0 l/m 3,6 km/h (1 Bft) NO 43 2 min 0,000 mm 0,0 UV-I 61 W/m -1,6 C -0,6 C 6,4 km/h (2 Bft) 100,00 %
12.03.2017 07:00 -0,6 C 93 % 1018,9 hPa 0,0 l/m 2,9 km/h (1 Bft) NO 43 2 min 0,000 mm 0,0 UV-I 67 W/m -1,6 C -0,6 C 4,8 km/h (1 Bft) 100,00 %
12.03.2017 07:02 -0,5 C 93 % 1018,9 hPa 0,0 l/m 2,5 km/h (1 Bft) NO 43 2 min 0,000 mm 0,0 UV-I 72 W/m -1,5 C -0,5 C 4,8 km/h (1 Bft) 97,22 %
12.03.2017 07:04 -0,4 C 93 % 1018,9 hPa 0,0 l/m 2,4 km/h (1 Bft) NO 53 2 min 0,000 mm 0,0 UV-I 78 W/m -1,4 C -0,4 C 6,4 km/h (2 Bft) 98,44 %
12.03.2017 07:06 -0,3 C 93 % 1018,9 hPa 0,0 l/m 2,9 km/h (1 Bft) O-NO 61 2 min 0,000 mm 0,0 UV-I 84 W/m -1,3 C -0,3 C 6,4 km/h (2 Bft) 97,37 %
12.03.2017 07:08 -0,2 C 93 % 1018,9 hPa 0,0 l/m 4,0 km/h (1 Bft) O-NO 57 2 min 0,000 mm 0,0 UV-I 89 W/m -1,2 C -0,2 C 4,8 km/h (1 Bft) 98,21 %
12.03.2017 07:10 0,0 C 94 % 1018,9 hPa 0,0 l/m 2,4 km/h (1 Bft) O-NO 57 2 min 0,000 mm 0,0 UV-I 93 W/m -0,8 C 0,0 C 4,8 km/h (1 Bft) 100,00 %
12.03.2017 07:12 0,1 C 93 % 1018,9 hPa 0,0 l/m 3,5 km/h (1 Bft) O-NO 63 2 min 0,000 mm 0,0 UV-I 98 W/m -0,9 C 0,1 C 6,4 km/h (2 Bft) 100,00 %
12.03.2017 07:14 0,2 C 93 % 1018,9 hPa 0,0 l/m 5,5 km/h (1 Bft) O-NO 69 2 min 0,000 mm 0,0 UV-I 104 W/m -0,8 C 0,2 C 6,4 km/h (2 Bft) 96,00 %
12.03.2017 07:16 0,2 C 93 % 1018,9 hPa 0,0 l/m 4,5 km/h (1 Bft) O-NO 65 2 min 0,000 mm 0,0 UV-I 109 W/m -0,8 C 0,2 C 6,4 km/h (2 Bft) 97,87 %
12.03.2017 07:18 0,3 C 93 % 1018,9 hPa 0,0 l/m 4,3 km/h (1 Bft) O-NO 63 2 min 0,000 mm 0,0 UV-I 113 W/m -0,7 C 0,3 C 6,4 km/h (2 Bft) 96,00 %
12.03.2017 07:20 0,3 C 93 % 1018,9 hPa 0,0 l/m 4,8 km/h (1 Bft) O-NO 61 2 min 0,000 mm 0,0 UV-I 118 W/m -0,7 C 0,3 C 6,4 km/h (2 Bft) 94,74 %
12.03.2017 07:22 0,4 C 93 % 1018,9 hPa 0,0 l/m 4,9 km/h (1 Bft) O-NO 67 2 min 0,000 mm 0,0 UV-I 124 W/m -0,6 C 0,4 C 6,4 km/h (2 Bft) 100,00 %
12.03.2017 07:24 0,4 C 93 % 1018,9 hPa 0,0 l/m 6,3 km/h (2 Bft) O-NO 63 2 min 0,000 mm 0,0 UV-I 129 W/m -0,6 C 0,4 C 8,0 km/h (2 Bft) 97,73 %
12.03.2017 07:26 0,5 C 92 % 1019,0 hPa 0,0 l/m 7,3 km/h (2 Bft) O-NO 62 2 min 0,000 mm 0,0 UV-I 133 W/m -0,6 C -0,4 C 11,3 km/h (2 Bft) 100,00 %
12.03.2017 07:28 0,6 C 92 % 1019,0 hPa 0,0 l/m 6,6 km/h (2 Bft) NO 46 2 min 0,000 mm 0,0 UV-I 137 W/m -0,5 C 0,4 C 9,7 km/h (2 Bft) 98,00 %
12.03.2017 07:30 0,7 C 92 % 1019,0 hPa 0,0 l/m 7,2 km/h (2 Bft) O-NO 62 2 min 0,000 mm 0,0 UV-I 142 W/m -0,4 C -0,1 C 9,7 km/h (2 Bft) 97,73 %
12.03.2017 07:32 0,7 C 92 % 1018,9 hPa 0,0 l/m 6,0 km/h (2 Bft) O-NO 71 2 min 0,000 mm 0,0 UV-I 147 W/m -0,4 C 0,7 C 12,9 km/h (3 Bft) 96,00 %
12.03.2017 07:34 0,8 C 92 % 1018,9 hPa 0,0 l/m 6,8 km/h (2 Bft) NO 50 2 min 0,000 mm 0,0 UV-I 153 W/m -0,3 C 0,4 C 9,7 km/h (2 Bft) 98,00 %
12.03.2017 07:36 0,8 C 92 % 1018,9 hPa 0,0 l/m 6,3 km/h (2 Bft) NO 45 2 min 0,000 mm 0,0 UV-I 157 W/m -0,3 C 0,8 C 8,0 km/h (2 Bft) 97,56 %
12.03.2017 07:38 0,9 C 92 % 1018,9 hPa 0,0 l/m 7,6 km/h (2 Bft) NO 51 2 min 0,000 mm 0,0 UV-I 163 W/m -0,2 C -0,3 C 9,7 km/h (2 Bft) 100,00 %
12.03.2017 07:40 0,9 C 92 % 1018,9 hPa 0,0 l/m 7,5 km/h (2 Bft) O-NO 63 2 min 0,000 mm 0,0 UV-I 166 W/m -0,2 C -0,2 C 9,7 km/h (2 Bft) 97,73 %
12.03.2017 07:42 1,0 C 92 % 1018,9 hPa 0,0 l/m 8,2 km/h (2 Bft) O-NO 57 2 min 0,000 mm 0,0 UV-I 169 W/m -0,2 C -0,8 C 9,7 km/h (2 Bft) 96,00 %
12.03.2017 07:44 1,1 C 92 % 1018,9 hPa 0,0 l/m 8,8 km/h (2 Bft) NO 42 2 min 0,000 mm 0,0 UV-I 173 W/m -0,1 C -1,2 C 14,5 km/h (3 Bft) 97,56 %
12.03.2017 07:46 1,1 C 91 % 1018,9 hPa 0,0 l/m 9,1 km/h (2 Bft) O-NO 61 2 min 0,000 mm 0,0 UV-I 178 W/m -0,2 C -1,5 C 14,5 km/h (3 Bft) 94,00 %
12.03.2017 07:48 1,2 C 91 % 1018,9 hPa 0,0 l/m 9,4 km/h (2 Bft) O-NO 61 2 min 0,000 mm 0,0 UV-I 183 W/m -0,1 C -1,6 C 14,5 km/h (3 Bft) 92,86 %
12.03.2017 07:50 1,3 C 91 % 1018,9 hPa 0,0 l/m 9,5 km/h (2 Bft) O-NO 76 2 min 0,000 mm 0,0 UV-I 188 W/m -0,0 C -1,6 C 14,5 km/h (3 Bft) 98,18 %
12.03.2017 07:52 1,3 C 91 % 1019,0 hPa 0,0 l/m 11,3 km/h (2 Bft) O-NO 69 2 min 0,000 mm 0,0 UV-I 192 W/m -0,0 C -3,0 C 17,7 km/h (3 Bft) 100,00 %
12.03.2017 07:54 1,3 C 91 % 1018,9 hPa 0,0 l/m 10,3 km/h (2 Bft) O-NO 63 2 min 0,000 mm 0,0 UV-I 200 W/m -0,0 C -2,3 C 14,5 km/h (3 Bft) 90,91 %
12.03.2017 07:56 1,4 C 91 % 1019,0 hPa 0,0 l/m 9,4 km/h (2 Bft) O-NO 58 2 min 0,000 mm 0,0 UV-I 206 W/m 0,1 C -1,4 C 14,5 km/h (3 Bft) 96,43 %
12.03.2017 07:58 1,4 C 91 % 1019,0 hPa 0,0 l/m 11,1 km/h (2 Bft) NO 44 2 min 0,000 mm 0,0 UV-I 213 W/m 0,1 C -2,7 C 16,1 km/h (3 Bft) 100,00 %
12.03.2017 08:00 1,6 C 91 % 1019,0 hPa 0,0 l/m 12,1 km/h (2 Bft) O-NO 73 2 min 0,051 mm 0,0 UV-I 220 W/m 0,3 C -3,2 C 17,7 km/h (3 Bft) 93,18 %
12.03.2017 08:02 1,6 C 91 % 1019,0 hPa 0,0 l/m 12,5 km/h (3 Bft) O-NO 71 2 min 0,000 mm 0,0 UV-I 227 W/m 0,3 C -3,5 C 16,1 km/h (3 Bft) 96,00 %
12.03.2017 08:04 1,7 C 91 % 1019,1 hPa 0,0 l/m 10,1 km/h (2 Bft) O 85 2 min 0,000 mm 0,0 UV-I 233 W/m 0,4 C -1,7 C 16,1 km/h (3 Bft) 95,45 %
12.03.2017 08:06 1,7 C 91 % 1019,1 hPa 0,0 l/m 11,8 km/h (2 Bft) O-NO 67 2 min 0,000 mm 0,0 UV-I 239 W/m 0,4 C -2,9 C 16,1 km/h (3 Bft) 96,23 %
12.03.2017 08:08 1,8 C 91 % 1019,1 hPa 0,0 l/m 12,6 km/h (3 Bft) O-NO 66 2 min 0,000 mm 0,0 UV-I 240 W/m 0,5 C -3,3 C 16,1 km/h (3 Bft) 97,56 %
12.03.2017 08:10 1,8 C 90 % 1019,1 hPa 0,0 l/m 11,0 km/h (2 Bft) O-NO 59 2 min 0,000 mm 0,0 UV-I 246 W/m 0,3 C -2,2 C 14,5 km/h (3 Bft) 100,00 %
12.03.2017 08:12 1,9 C 90 % 1019,1 hPa 0,0 l/m 11,9 km/h (2 Bft) NO 52 2 min 0,000 mm 0,0 UV-I 252 W/m 0,4 C -2,7 C 17,7 km/h (3 Bft) 100,00 %
12.03.2017 08:14 1,9 C 90 % 1019,1 hPa 0,0 l/m 11,8 km/h (2 Bft) NO 53 2 min 0,000 mm 0,0 UV-I 260 W/m 0,4 C -2,7 C 16,1 km/h (3 Bft) 95,74 %
12.03.2017 08:16 2,0 C 90 % 1019,0 hPa 0,0 l/m 11,7 km/h (2 Bft) NO 44 2 min 0,000 mm 0,0 UV-I 266 W/m 0,5 C -2,5 C 19,3 km/h (3 Bft) 100,00 %
12.03.2017 08:18 2,1 C 90 % 1019,1 hPa 0,0 l/m 14,0 km/h (3 Bft) O-NO 71 2 min 0,000 mm 0,0 UV-I 272 W/m 0,6 C -3,9 C 19,3 km/h (3 Bft) 94,74 %
12.03.2017 08:20 2,1 C 90 % 1019,1 hPa 0,0 l/m 13,6 km/h (3 Bft) NO 42 2 min 0,000 mm 0,0 UV-I 279 W/m 0,6 C -3,6 C 19,3 km/h (3 Bft) 91,49 %
12.03.2017 08:22 2,2 C 90 % 1019,1 hPa 0,0 l/m 15,7 km/h (3 Bft) O-NO 72 2 min 0,000 mm 0,0 UV-I 284 W/m 0,7 C -4,7 C 22,5 km/h (4 Bft) 96,23 %
12.03.2017 08:24 2,2 C 90 % 1019,1 hPa 0,0 l/m 15,4 km/h (3 Bft) NO 54 2 min 0,000 mm 0,0 UV-I 292 W/m 0,7 C -4,5 C 20,9 km/h (4 Bft) 94,74 %
12.03.2017 08:26 2,3 C 90 % 1019,1 hPa 0,0 l/m 16,6 km/h (3 Bft) NO 56 2 min 0,000 mm 0,1 UV-I 295 W/m 0,8 C -5,1 C 24,1 km/h (4 Bft) 94,64 %
12.03.2017 08:28 2,3 C 89 % 1019,1 hPa 0,0 l/m 17,2 km/h (3 Bft) O-NO 71 2 min 0,000 mm 0,5 UV-I 300 W/m 0,7 C -5,4 C 24,1 km/h (4 Bft) 96,30 %
12.03.2017 08:30 2,4 C 90 % 1019,1 hPa 0,0 l/m 14,1 km/h (3 Bft) NO 50 2 min 0,000 mm 0,5 UV-I 308 W/m 0,9 C -3,6 C 24,1 km/h (4 Bft) 95,16 %
12.03.2017 08:32 2,4 C 90 % 1019,1 hPa 0,0 l/m 12,9 km/h (3 Bft) O-NO 60 2 min 0,000 mm 0,5 UV-I 313 W/m 0,9 C -2,8 C 19,3 km/h (3 Bft) 95,74 %
12.03.2017 08:34 2,6 C 90 % 1019,0 hPa 0,0 l/m 15,0 km/h (3 Bft) O-NO 57 2 min 0,000 mm 0,5 UV-I 319 W/m 1,1 C -3,8 C 20,9 km/h (4 Bft) 95,74 %
12.03.2017 08:36 2,6 C 90 % 1019,1 hPa 0,0 l/m 15,9 km/h (3 Bft) O-NO 67 2 min 0,000 mm 0,5 UV-I 325 W/m 1,1 C -4,3 C 24,1 km/h (4 Bft) 96,00 %
12.03.2017 08:38 2,7 C 90 % 1019,1 hPa 0,0 l/m 13,9 km/h (3 Bft) O-NO 63 2 min 0,000 mm 0,5 UV-I 332 W/m 1,2 C -3,1 C 20,9 km/h (4 Bft) 97,56 %
12.03.2017 08:40 2,8 C 89 % 1019,1 hPa 0,0 l/m 15,1 km/h (3 Bft) O 80 2 min 0,000 mm 0,6 UV-I 339 W/m 1,2 C -3,6 C 20,9 km/h (4 Bft) 96,23 %
12.03.2017 08:42 2,9 C 89 % 1019,0 hPa 0,0 l/m 15,3 km/h (3 Bft) O-NO 69 2 min 0,000 mm 0,6 UV-I 344 W/m 1,3 C -3,6 C 22,5 km/h (4 Bft) 95,45 %
12.03.2017 08:44 3,0 C 89 % 1019,1 hPa 0,0 l/m 16,3 km/h (3 Bft) O-NO 61 2 min 0,000 mm 0,6 UV-I 351 W/m 1,4 C -4,0 C 22,5 km/h (4 Bft) 94,34 %
12.03.2017 08:46 3,0 C 88 % 1019,0 hPa 0,0 l/m 18,1 km/h (3 Bft) O-NO 57 2 min 0,000 mm 0,6 UV-I 355 W/m 1,2 C -4,9 C 22,5 km/h (4 Bft) 97,37 %
12.03.2017 08:48 3,1 C 88 % 1019,0 hPa 0,0 l/m 11,8 km/h (2 Bft) O-NO 71 2 min 0,000 mm 0,6 UV-I 361 W/m 1,3 C -1,3 C 16,1 km/h (3 Bft) 97,87 %
12.03.2017 08:50 3,2 C 88 % 1019,0 hPa 0,0 l/m 15,0 km/h (3 Bft) O-NO 65 2 min 0,000 mm 0,6 UV-I 366 W/m 1,4 C -3,1 C 20,9 km/h (4 Bft) 93,62 %
12.03.2017 08:52 3,3 C 87 % 1019,1 hPa 0,0 l/m 12,5 km/h (3 Bft) O 91 2 min 0,000 mm 0,7 UV-I 372 W/m 1,3 C -1,5 C 17,7 km/h (3 Bft) 100,00 %
12.03.2017 08:54 3,5 C 87 % 1019,0 hPa 0,0 l/m 12,2 km/h (2 Bft) O 86 2 min 0,000 mm 0,7 UV-I 379 W/m 1,5 C -1,1 C 16,1 km/h (3 Bft) 90,24 %
12.03.2017 08:56 3,5 C 86 % 1019,0 hPa 0,0 l/m 14,9 km/h (3 Bft) O-NO 67 2 min 0,000 mm 0,7 UV-I 383 W/m 1,4 C -2,7 C 17,7 km/h (3 Bft) 98,11 %
12.03.2017 08:58 3,6 C 85 % 1019,0 hPa 0,0 l/m 14,1 km/h (3 Bft) O-NO 78 2 min 0,000 mm 0,7 UV-I 387 W/m 1,3 C -2,1 C 24,1 km/h (4 Bft) 100,00 %
12.03.2017 09:00 3,6 C 84 % 1019,0 hPa 0,0 l/m 15,5 km/h (3 Bft) O-SO 106 2 min 0,127 mm 0,7 UV-I 392 W/m 1,2 C -2,9 C 24,1 km/h (4 Bft) 100,00 %
12.03.2017 09:02 3,7 C 84 % 1019,0 hPa 0,0 l/m 14,0 km/h (3 Bft) O 93 2 min 0,000 mm 0,8 UV-I 397 W/m 1,3 C -1,9 C 19,3 km/h (3 Bft) 97,87 %
12.03.2017 09:04 3,8 C 84 % 1018,9 hPa 0,0 l/m 10,8 km/h (2 Bft) O-NO 78 2 min 0,000 mm 0,8 UV-I 403 W/m 1,4 C 0,2 C 22,5 km/h (4 Bft) 100,00 %
12.03.2017 09:06 3,9 C 82 % 1019,0 hPa 0,0 l/m 14,5 km/h (3 Bft) O-NO 63 2 min 0,000 mm 0,8 UV-I 409 W/m 1,1 C -2,0 C 20,9 km/h (4 Bft) 100,00 %
12.03.2017 09:08 4,0 C 81 % 1018,9 hPa 0,0 l/m 16,1 km/h (3 Bft) O-NO 74 2 min 0,000 mm 0,8 UV-I 413 W/m 1,0 C -2,7 C 22,5 km/h (4 Bft) 100,00 %
12.03.2017 09:10 4,1 C 80 % 1018,9 hPa 0,0 l/m 15,7 km/h (3 Bft) O 85 2 min 0,000 mm 0,8 UV-I 419 W/m 1,0 C -2,4 C 22,5 km/h (4 Bft) 100,00 %
12.03.2017 09:12 4,1 C 80 % 1019,0 hPa 0,0 l/m 14,4 km/h (3 Bft) O-NO 69 2 min 0,000 mm 0,9 UV-I 423 W/m 1,0 C -1,7 C 19,3 km/h (3 Bft) 96,36 %
12.03.2017 09:14 4,2 C 80 % 1019,0 hPa 0,0 l/m 14,0 km/h (3 Bft) O-NO 78 2 min 0,000 mm 0,9 UV-I 426 W/m 1,1 C -1,4 C 19,3 km/h (3 Bft) 97,92 %
12.03.2017 09:16 4,2 C 80 % 1019,0 hPa 0,0 l/m 14,2 km/h (3 Bft) NO 46 2 min 0,000 mm 0,9 UV-I 433 W/m 1,1 C -1,5 C 22,5 km/h (4 Bft) 100,00 %
12.03.2017 09:18 4,3 C 81 % 1019,0 hPa 0,0 l/m 18,1 km/h (3 Bft) NO 50 2 min 0,000 mm 0,9 UV-I 439 W/m 1,3 C -3,3 C 24,1 km/h (4 Bft) 98,00 %
12.03.2017 09:20 4,3 C 79 % 1019,0 hPa 0,0 l/m 18,9 km/h (3 Bft) O-NO 59 2 min 0,000 mm 0,9 UV-I 443 W/m 1,0 C -3,6 C 25,7 km/h (4 Bft) 100,00 %
12.03.2017 09:22 4,3 C 80 % 1019,0 hPa 0,0 l/m 15,9 km/h (3 Bft) O-NO 58 2 min 0,000 mm 1,0 UV-I 449 W/m 1,2 C -2,2 C 22,5 km/h (4 Bft) 97,87 %
12.03.2017 09:24 4,3 C 80 % 1019,0 hPa 0,0 l/m 19,9 km/h (4 Bft) NO 46 2 min 0,000 mm 1,0 UV-I 454 W/m 1,2 C -4,0 C 24,1 km/h (4 Bft) 100,00 %
12.03.2017 09:26 4,2 C 79 % 1019,0 hPa 0,0 l/m 20,3 km/h (4 Bft) O-NO 68 2 min 0,000 mm 1,0 UV-I 458 W/m 0,9 C -4,3 C 24,1 km/h (4 Bft) 97,73 %
12.03.2017 09:28 4,2 C 79 % 1019,0 hPa 0,0 l/m 20,0 km/h (4 Bft) O-NO 58 2 min 0,000 mm 1,0 UV-I 463 W/m 0,9 C -4,2 C 24,1 km/h (4 Bft) 97,73 %
12.03.2017 09:30 4,1 C 79 % 1019,0 hPa 0,0 l/m 20,6 km/h (4 Bft) O-NO 68 2 min 0,000 mm 1,0 UV-I 471 W/m 0,8 C -4,6 C 27,4 km/h (4 Bft) 97,87 %
12.03.2017 09:32 4,1 C 80 % 1019,0 hPa 0,0 l/m 23,0 km/h (4 Bft) O-NO 73 2 min 0,000 mm 1,1 UV-I 475 W/m 1,0 C -5,5 C 32,2 km/h (5 Bft) 100,00 %
12.03.2017 09:34 4,1 C 78 % 1019,0 hPa 0,0 l/m 22,1 km/h (4 Bft) NO 51 2 min 0,000 mm 1,1 UV-I 477 W/m 0,6 C -5,2 C 29,0 km/h (5 Bft) 97,37 %
12.03.2017 09:36 4,1 C 78 % 1019,0 hPa 0,0 l/m 20,1 km/h (4 Bft) NO 53 2 min 0,000 mm 1,1 UV-I 484 W/m 0,6 C -4,4 C 25,7 km/h (4 Bft) 98,46 %
12.03.2017 09:38 4,1 C 79 % 1019,0 hPa 0,0 l/m 19,5 km/h (3 Bft) NO 49 2 min 0,000 mm 1,1 UV-I 488 W/m 0,8 C -4,1 C 27,4 km/h (4 Bft) 100,00 %
12.03.2017 09:40 4,1 C 79 % 1019,0 hPa 0,0 l/m 19,7 km/h (3 Bft) O-NO 74 2 min 0,000 mm 1,2 UV-I 492 W/m 0,8 C -4,2 C 27,4 km/h (4 Bft) 100,00 %
12.03.2017 09:42 4,2 C 79 % 1019,0 hPa 0,0 l/m 18,1 km/h (3 Bft) O-NO 61 2 min 0,000 mm 1,2 UV-I 494 W/m 0,9 C -3,4 C 25,7 km/h (4 Bft) 100,00 %
12.03.2017 09:44 4,3 C 80 % 1019,0 hPa 0,0 l/m 18,2 km/h (3 Bft) O-NO 76 2 min 0,000 mm 1,2 UV-I 498 W/m 1,2 C -3,3 C 24,1 km/h (4 Bft) 96,23 %
12.03.2017 09:46 4,3 C 79 % 1019,0 hPa 0,0 l/m 15,7 km/h (3 Bft) O-NO 61 2 min 0,000 mm 1,2 UV-I 501 W/m 1,0 C -2,1 C 19,3 km/h (3 Bft) 100,00 %
12.03.2017 09:48 4,4 C 79 % 1019,0 hPa 0,0 l/m 13,0 km/h (3 Bft) NO 55 2 min 0,000 mm 1,2 UV-I 506 W/m 1,1 C -0,5 C 19,3 km/h (3 Bft) 96,61 %
12.03.2017 09:50 4,5 C 79 % 1019,0 hPa 0,0 l/m 16,9 km/h (3 Bft) O-NO 58 2 min 0,000 mm 1,2 UV-I 509 W/m 1,2 C -2,5 C 24,1 km/h (4 Bft) 98,11 %
12.03.2017 09:52 4,4 C 79 % 1019,0 hPa 0,0 l/m 17,8 km/h (3 Bft) O-NO 61 2 min 0,000 mm 1,3 UV-I 513 W/m 1,1 C -3,0 C 24,1 km/h (4 Bft) 100,00 %
12.03.2017 09:54 4,4 C 78 % 1019,0 hPa 0,0 l/m 21,2 km/h (4 Bft) O-NO 74 2 min 0,000 mm 1,3 UV-I 516 W/m 0,9 C -4,4 C 25,7 km/h (4 Bft) 97,87 %
12.03.2017 09:56 4,5 C 79 % 1019,0 hPa 0,0 l/m 16,5 km/h (3 Bft) O-NO 65 2 min 0,000 mm 1,3 UV-I 520 W/m 1,2 C -2,3 C 22,5 km/h (4 Bft) 100,00 %
12.03.2017 09:58 4,5 C 79 % 1019,0 hPa 0,0 l/m 15,2 km/h (3 Bft) O-NO 71 2 min 0,000 mm 1,3 UV-I 524 W/m 1,2 C -1,6 C 22,5 km/h (4 Bft) 94,64 %
12.03.2017 10:00 4,6 C 80 % 1019,1 hPa 0,0 l/m 15,6 km/h (3 Bft) NO 40 2 min 0,203 mm 1,3 UV-I 531 W/m 1,5 C -1,7 C 20,9 km/h (4 Bft) 95,74 %
12.03.2017 10:02 4,7 C 80 % 1019,0 hPa 0,0 l/m 16,8 km/h (3 Bft) O 86 2 min 0,000 mm 1,3 UV-I 533 W/m 1,6 C -2,2 C 20,9 km/h (4 Bft) 94,34 %
12.03.2017 10:04 4,7 C 79 % 1019,0 hPa 0,0 l/m 18,1 km/h (3 Bft) O-NO 69 2 min 0,000 mm 1,4 UV-I 540 W/m 1,4 C -2,8 C 22,5 km/h (4 Bft) 92,68 %
12.03.2017 10:06 4,7 C 78 % 1019,0 hPa 0,0 l/m 13,7 km/h (3 Bft) O-NO 70 2 min 0,000 mm 1,4 UV-I 532 W/m 1,2 C -0,6 C 20,9 km/h (4 Bft) 96,55 %
12.03.2017 10:08 4,8 C 79 % 1019,0 hPa 0,0 l/m 18,3 km/h (3 Bft) O 91 2 min 0,000 mm 1,4 UV-I 544 W/m 1,5 C -2,7 C 24,1 km/h (4 Bft) 92,96 %
12.03.2017 10:10 4,9 C 78 % 1019,0 hPa 0,0 l/m 17,7 km/h (3 Bft) O-NO 75 2 min 0,000 mm 1,4 UV-I 553 W/m 1,4 C -2,3 C 24,1 km/h (4 Bft) 97,73 %
12.03.2017 10:12 5,1 C 79 % 1019,0 hPa 0,0 l/m 12,9 km/h (3 Bft) NO 41 2 min 0,000 mm 1,4 UV-I 551 W/m 1,8 C 0,3 C 17,7 km/h (3 Bft) 97,73 %
12.03.2017 10:14 5,2 C 79 % 1019,0 hPa 0,0 l/m 13,8 km/h (3 Bft) O 81 2 min 0,000 mm 1,5 UV-I 559 W/m 1,9 C -0,0 C 20,9 km/h (4 Bft) 98,11 %
12.03.2017 10:16 5,3 C 78 % 1019,0 hPa 0,0 l/m 14,6 km/h (3 Bft) O-NO 69 2 min 0,000 mm 1,5 UV-I 555 W/m 1,8 C -0,4 C 20,9 km/h (4 Bft) 95,12 %
12.03.2017 10:18 5,2 C 78 % 1019,0 hPa 0,0 l/m 15,3 km/h (3 Bft) O-NO 76 2 min 0,000 mm 1,5 UV-I 551 W/m 1,7 C -0,8 C 20,9 km/h (4 Bft) 91,11 %
12.03.2017 10:20 5,2 C 78 % 1019,0 hPa 0,0 l/m 15,9 km/h (3 Bft) NO 55 2 min 0,000 mm 1,5 UV-I 564 W/m 1,7 C -1,1 C 20,9 km/h (4 Bft) 100,00 %
12.03.2017 10:22 5,3 C 78 % 1019,0 hPa 0,0 l/m 15,7 km/h (3 Bft) NO 41 2 min 0,000 mm 1,4 UV-I 573 W/m 1,8 C -0,9 C 22,5 km/h (4 Bft) 98,57 %
12.03.2017 10:24 5,4 C 77 % 1019,0 hPa 0,0 l/m 15,5 km/h (3 Bft) O-NO 64 2 min 0,000 mm 1,6 UV-I 578 W/m 1,7 C -0,7 C 22,5 km/h (4 Bft) 97,62 %
12.03.2017 10:26 5,4 C 75 % 1019,0 hPa 0,0 l/m 16,7 km/h (3 Bft) O-NO 59 2 min 0,000 mm 1,6 UV-I 580 W/m 1,3 C -1,3 C 25,7 km/h (4 Bft) 100,00 %
12.03.2017 10:28 5,4 C 76 % 1019,0 hPa 0,0 l/m 14,6 km/h (3 Bft) N-NO 26 2 min 0,000 mm 1,6 UV-I 582 W/m 1,5 C -0,2 C 19,3 km/h (3 Bft) 93,62 %
12.03.2017 10:30 5,6 C 78 % 1018,9 hPa 0,0 l/m 10,1 km/h (2 Bft) O-NO 63 2 min 0,000 mm 1,6 UV-I 578 W/m 2,1 C 2,7 C 16,1 km/h (3 Bft) 97,44 %
12.03.2017 10:32 5,8 C 78 % 1018,9 hPa 0,0 l/m 14,5 km/h (3 Bft) NO 48 2 min 0,000 mm 1,6 UV-I 590 W/m 2,3 C 0,3 C 20,9 km/h (4 Bft) 100,00 %
12.03.2017 10:34 6,0 C 79 % 1018,9 hPa 0,0 l/m 18,5 km/h (3 Bft) NO 34 2 min 0,000 mm 1,7 UV-I 591 W/m 2,6 C -1,3 C 24,1 km/h (4 Bft) 92,00 %
12.03.2017 10:36 6,1 C 76 % 1018,9 hPa 0,0 l/m 18,8 km/h (3 Bft) NO 49 2 min 0,000 mm 1,7 UV-I 601 W/m 2,2 C -1,3 C 24,1 km/h (4 Bft) 92,68 %
12.03.2017 10:38 6,2 C 78 % 1018,9 hPa 0,0 l/m 20,6 km/h (4 Bft) NO 53 2 min 0,000 mm 1,7 UV-I 611 W/m 2,7 C -1,8 C 25,7 km/h (4 Bft) 98,11 %
12.03.2017 10:40 6,2 C 77 % 1018,9 hPa 0,0 l/m 19,9 km/h (4 Bft) NO 47 2 min 0,000 mm 1,7 UV-I 606 W/m 2,5 C -1,6 C 25,7 km/h (4 Bft) 100,00 %
12.03.2017 10:42 6,1 C 75 % 1018,9 hPa 0,0 l/m 18,7 km/h (3 Bft) NO 39 2 min 0,000 mm 1,7 UV-I 612 W/m 2,0 C -1,2 C 24,1 km/h (4 Bft) 94,00 %
12.03.2017 10:44 5,9 C 76 % 1018,9 hPa 0,0 l/m 16,9 km/h (3 Bft) NO 42 2 min 0,000 mm 1,7 UV-I 595 W/m 2,0 C -0,7 C 24,1 km/h (4 Bft) 94,00 %
12.03.2017 10:46 6,1 C 78 % 1018,9 hPa 0,0 l/m 17,5 km/h (3 Bft) NO 43 2 min 0,000 mm 1,8 UV-I 638 W/m 2,6 C -0,7 C 24,1 km/h (4 Bft) 100,00 %
12.03.2017 10:48 6,1 C 74 % 1018,9 hPa 0,0 l/m 18,5 km/h (3 Bft) O-NO 67 2 min 0,000 mm 1,7 UV-I 636 W/m 1,8 C -1,2 C 22,5 km/h (4 Bft) 96,00 %
12.03.2017 10:50 6,2 C 75 % 1018,9 hPa 0,0 l/m 15,3 km/h (3 Bft) O-NO 62 2 min 0,000 mm 1,8 UV-I 622 W/m 2,1 C 0,4 C 22,5 km/h (4 Bft) 94,29 %
12.03.2017 10:52 6,3 C 74 % 1018,8 hPa 0,0 l/m 16,8 km/h (3 Bft) O-NO 57 2 min 0,000 mm 1,8 UV-I 621 W/m 2,0 C -0,2 C 25,7 km/h (4 Bft) 94,34 %
12.03.2017 10:54 6,3 C 72 % 1018,9 hPa 0,0 l/m 19,4 km/h (3 Bft) O-NO 76 2 min 0,000 mm 1,9 UV-I 622 W/m 1,6 C -1,3 C 29,0 km/h (5 Bft) 100,00 %
12.03.2017 10:56 6,3 C 72 % 1018,8 hPa 0,0 l/m 16,7 km/h (3 Bft) O 82 2 min 0,000 mm 1,9 UV-I 623 W/m 1,6 C -0,1 C 25,7 km/h (4 Bft) 96,43 %
12.03.2017 10:58 6,3 C 71 % 1018,8 hPa 0,0 l/m 19,2 km/h (3 Bft) O-NO 60 2 min 0,000 mm 1,9 UV-I 637 W/m 1,4 C -1,2 C 25,7 km/h (4 Bft) 95,24 %
12.03.2017 11:00 6,2 C 70 % 1018,8 hPa 0,0 l/m 19,6 km/h (3 Bft) O-NO 64 2 min 0,000 mm 1,9 UV-I 632 W/m 1,1 C -1,5 C 27,4 km/h (4 Bft) 100,00 %
12.03.2017 11:02 6,2 C 70 % 1018,8 hPa 0,0 l/m 17,2 km/h (3 Bft) O-NO 67 2 min 0,254 mm 1,7 UV-I 625 W/m 1,1 C -0,5 C 22,5 km/h (4 Bft) 98,00 %
12.03.2017 11:04 6,3 C 71 % 1018,8 hPa 0,0 l/m 16,2 km/h (3 Bft) N-NO 22 2 min 0,000 mm 1,9 UV-I 635 W/m 1,4 C 0,1 C 22,5 km/h (4 Bft) 94,87 %
12.03.2017 11:06 6,4 C 72 % 1018,8 hPa 0,0 l/m 21,7 km/h (4 Bft) NO 42 2 min 0,000 mm 2,0 UV-I 639 W/m 1,7 C -2,0 C 29,0 km/h (5 Bft) 100,00 %
12.03.2017 11:08 6,5 C 72 % 1018,8 hPa 0,0 l/m 18,3 km/h (3 Bft) N-NO 30 2 min 0,000 mm 2,0 UV-I 637 W/m 1,8 C -0,6 C 27,4 km/h (4 Bft) 100,00 %
12.03.2017 11:10 6,6 C 71 % 1018,8 hPa 0,0 l/m 20,5 km/h (4 Bft) O-NO 57 2 min 0,000 mm 2,0 UV-I 635 W/m 1,7 C -1,3 C 32,2 km/h (5 Bft) 97,44 %
12.03.2017 11:12 6,6 C 71 % 1018,8 hPa 0,0 l/m 23,1 km/h (4 Bft) NO 42 2 min 0,000 mm 2,0 UV-I 640 W/m 1,7 C -2,2 C 30,6 km/h (5 Bft) 94,34 %
12.03.2017 11:14 6,7 C 70 % 1018,8 hPa 0,0 l/m 16,3 km/h (3 Bft) NO 44 2 min 0,000 mm 2,0 UV-I 658 W/m 1,6 C 0,5 C 25,7 km/h (4 Bft) 97,87 %
12.03.2017 11:16 6,8 C 71 % 1018,8 hPa 0,0 l/m 18,1 km/h (3 Bft) O-NO 60 2 min 0,000 mm 2,1 UV-I 680 W/m 1,9 C -0,1 C 24,1 km/h (4 Bft) 92,00 %
12.03.2017 11:18 6,7 C 66 % 1018,8 hPa 0,0 l/m 20,8 km/h (4 Bft) NO 56 2 min 0,000 mm 1,9 UV-I 678 W/m 0,8 C -1,3 C 25,7 km/h (4 Bft) 97,37 %
12.03.2017 11:20 6,4 C 67 % 1018,8 hPa 0,0 l/m 20,0 km/h (4 Bft) NO 49 2 min 0,000 mm 2,0 UV-I 669 W/m 0,7 C -1,4 C 29,0 km/h (5 Bft) 93,18 %
12.03.2017 11:22 6,4 C 69 % 1018,8 hPa 0,0 l/m 16,0 km/h (3 Bft) N-NO 31 2 min 0,000 mm 2,0 UV-I 648 W/m 1,1 C 0,3 C 22,5 km/h (4 Bft) 95,45 %
12.03.2017 11:24 6,5 C 70 % 1018,8 hPa 0,0 l/m 17,4 km/h (3 Bft) O-NO 61 2 min 0,000 mm 2,1 UV-I 673 W/m 1,4 C -0,2 C 20,9 km/h (4 Bft) 100,00 %
12.03.2017 11:26 6,5 C 70 % 1018,7 hPa 0,0 l/m 22,8 km/h (4 Bft) NO 47 2 min 0,000 mm 2,1 UV-I 681 W/m 1,4 C -2,2 C 32,2 km/h (5 Bft) 91,67 %
12.03.2017 11:28 6,8 C 73 % 1018,7 hPa 0,0 l/m 19,6 km/h (3 Bft) NO 55 2 min 0,000 mm 2,1 UV-I 709 W/m 2,3 C -0,7 C 27,4 km/h (4 Bft) 95,45 %
12.03.2017 11:30 6,9 C 72 % 1018,7 hPa 0,0 l/m 17,6 km/h (3 Bft) NO 48 2 min 0,000 mm 2,1 UV-I 728 W/m 2,2 C 0,2 C 25,7 km/h (4 Bft) 96,23 %
12.03.2017 11:32 6,9 C 70 % 1018,6 hPa 0,0 l/m 20,1 km/h (4 Bft) NO 38 2 min 0,000 mm 2,1 UV-I 734 W/m 1,8 C -0,8 C 27,4 km/h (4 Bft) 87,80 %
12.03.2017 11:34 6,8 C 68 % 1018,6 hPa 0,0 l/m 18,8 km/h (3 Bft) NO 56 2 min 0,000 mm 1,8 UV-I 742 W/m 1,3 C -0,4 C 30,6 km/h (5 Bft) 93,18 %
12.03.2017 11:36 6,6 C 69 % 1018,6 hPa 0,0 l/m 18,1 km/h (3 Bft) N-NO 24 2 min 0,000 mm 1,8 UV-I 377 W/m 1,3 C -0,4 C 27,4 km/h (4 Bft) 96,23 %
12.03.2017 11:38 6,6 C 68 % 1018,6 hPa 0,0 l/m 19,2 km/h (3 Bft) N-NO 29 2 min 0,000 mm 2,1 UV-I 544 W/m 1,1 C -0,8 C 29,0 km/h (5 Bft) 95,45 %
12.03.2017 11:40 6,7 C 72 % 1018,5 hPa 0,0 l/m 21,3 km/h (4 Bft) N-NO 22 2 min 0,000 mm 2,2 UV-I 704 W/m 2,0 C -1,4 C 29,0 km/h (5 Bft) 92,45 %
12.03.2017 11:42 6,8 C 70 % 1018,5 hPa 0,0 l/m 23,2 km/h (4 Bft) NO 49 2 min 0,000 mm 2,1 UV-I 662 W/m 1,7 C -1,9 C 29,0 km/h (5 Bft) 94,74 %
12.03.2017 11:44 6,7 C 69 % 1018,5 hPa 0,0 l/m 20,8 km/h (4 Bft) O-NO 58 2 min 0,000 mm 2,2 UV-I 677 W/m 1,4 C -1,3 C 29,0 km/h (5 Bft) 100,00 %
12.03.2017 11:46 6,7 C 68 % 1018,5 hPa 0,0 l/m 22,3 km/h (4 Bft) NO 36 2 min 0,000 mm 2,2 UV-I 698 W/m 1,2 C -1,8 C 27,4 km/h (4 Bft) 94,34 %
12.03.2017 11:48 6,7 C 68 % 1018,5 hPa 0,0 l/m 18,0 km/h (3 Bft) O-NO 77 2 min 0,000 mm 2,2 UV-I 683 W/m 1,2 C -0,2 C 24,1 km/h (4 Bft) 88,64 %
12.03.2017 11:50 6,7 C 67 % 1018,5 hPa 0,0 l/m 19,4 km/h (3 Bft) NO 55 2 min 0,000 mm 2,2 UV-I 675 W/m 1,0 C -0,7 C 24,1 km/h (4 Bft) 100,00 %
12.03.2017 11:52 6,8 C 68 % 1018,5 hPa 0,0 l/m 16,8 km/h (3 Bft) N-NO 28 2 min 0,000 mm 2,1 UV-I 655 W/m 1,3 C 0,4 C 20,9 km/h (4 Bft) 100,00 %
12.03.2017 11:54 6,9 C 67 % 1018,4 hPa 0,0 l/m 15,5 km/h (3 Bft) NO 53 2 min 0,000 mm 2,2 UV-I 675 W/m 1,2 C 1,1 C 27,4 km/h (4 Bft) 96,30 %
12.03.2017 11:56 7,1 C 65 % 1018,4 hPa 0,0 l/m 18,4 km/h (3 Bft) NO 34 2 min 0,000 mm 2,2 UV-I 672 W/m 1,0 C 0,1 C 24,1 km/h (4 Bft) 97,26 %
12.03.2017 11:58 7,2 C 66 % 1018,4 hPa 0,0 l/m 19,2 km/h (3 Bft) NO 46 2 min 0,000 mm 2,2 UV-I 675 W/m 1,3 C -0,0 C 25,7 km/h (4 Bft) 100,00 %
12.03.2017 12:00 7,2 C 66 % 1018,4 hPa 0,0 l/m 21,0 km/h (4 Bft) O-NO 61 2 min 0,305 mm 2,2 UV-I 674 W/m 1,3 C -0,7 C 25,7 km/h (4 Bft) 100,00 %
12.03.2017 12:03 7,2 C 66 % 1018,4 hPa 0,0 l/m 16,5 km/h (3 Bft) NO 42 3 min 0,000 mm 2,2 UV-I 673 W/m 1,3 C 1,1 C 24,1 km/h (4 Bft) 94,85 %
12.03.2017 12:04 7,2 C 66 % 1018,4 hPa 0,0 l/m 23,3 km/h (4 Bft) O 79 1 min 0,000 mm 2,2 UV-I 676 W/m 1,3 C -1,4 C 29,0 km/h (5 Bft) 100,00 %
12.03.2017 12:06 7,2 C 64 % 1018,4 hPa 0,0 l/m 18,6 km/h (3 Bft) O-NO 67 2 min 0,000 mm 2,2 UV-I 684 W/m 0,9 C 0,2 C 24,1 km/h (4 Bft) 100,00 %
12.03.2017 12:08 7,2 C 65 % 1018,4 hPa 0,0 l/m 18,4 km/h (3 Bft) O-NO 57 2 min 0,000 mm 2,2 UV-I 692 W/m 1,1 C 0,3 C 25,7 km/h (4 Bft) 96,00 %
12.03.2017 12:10 7,3 C 66 % 1018,4 hPa 0,0 l/m 17,5 km/h (3 Bft) O 94 2 min 0,000 mm 2,3 UV-I 714 W/m 1,4 C 0,8 C 24,1 km/h (4 Bft) 90,91 %
12.03.2017 12:12 7,5 C 65 % 1018,4 hPa 0,0 l/m 19,2 km/h (3 Bft) O-NO 78 2 min 0,000 mm 2,2 UV-I 699 W/m 1,4 C 0,4 C 25,7 km/h (4 Bft) 98,00 %
12.03.2017 12:14 7,4 C 63 % 1018,5 hPa 0,0 l/m 18,4 km/h (3 Bft) O-NO 64 2 min 0,000 mm 2,3 UV-I 690 W/m 0,8 C 0,5 C 25,7 km/h (4 Bft) 98,11 %
12.03.2017 12:16 7,3 C 66 % 1018,4 hPa 0,0 l/m 17,0 km/h (3 Bft) O-NO 71 2 min 0,000 mm 2,0 UV-I 680 W/m 1,4 C 1,0 C 27,4 km/h (4 Bft) 92,68 %
12.03.2017 12:18 7,3 C 66 % 1018,4 hPa 0,0 l/m 18,6 km/h (3 Bft) NO 40 2 min 0,000 mm 2,2 UV-I 694 W/m 1,4 C 0,3 C 25,7 km/h (4 Bft) 95,45 %
12.03.2017 12:20 7,4 C 69 % 1018,4 hPa 0,0 l/m 15,0 km/h (3 Bft) NO 44 2 min 0,000 mm 2,3 UV-I 681 W/m 2,1 C 2,0 C 20,9 km/h (4 Bft) 100,00 %
12.03.2017 12:22 7,5 C 66 % 1018,4 hPa 0,0 l/m 12,1 km/h (2 Bft) O-SO 115 2 min 0,000 mm 2,3 UV-I 695 W/m 1,6 C 3,6 C 17,7 km/h (3 Bft) 95,12 %
12.03.2017 12:24 7,6 C 64 % 1018,3 hPa 0,0 l/m 18,9 km/h (3 Bft) O 81 2 min 0,000 mm 2,3 UV-I 717 W/m 1,2 C 0,6 C 27,4 km/h (4 Bft) 96,23 %
12.03.2017 12:26 7,6 C 63 % 1018,3 hPa 0,0 l/m 22,1 km/h (4 Bft) O-SO 117 2 min 0,000 mm 2,3 UV-I 727 W/m 1,0 C -0,5 C 29,0 km/h (5 Bft) 100,00 %
12.03.2017 12:28 7,5 C 66 % 1018,3 hPa 0,0 l/m 20,5 km/h (4 Bft) NO 47 2 min 0,000 mm 2,3 UV-I 735 W/m 1,6 C -0,1 C 27,4 km/h (4 Bft) 98,11 %
12.03.2017 12:30 7,5 C 66 % 1018,3 hPa 0,0 l/m 19,3 km/h (3 Bft) N-NO 23 2 min 0,000 mm 2,0 UV-I 743 W/m 1,6 C 0,3 C 27,4 km/h (4 Bft) 96,00 %
12.03.2017 12:32 7,5 C 66 % 1018,2 hPa 0,0 l/m 20,2 km/h (4 Bft) N-NO 18 2 min 0,000 mm 2,3 UV-I 744 W/m 1,6 C -0,0 C 29,0 km/h (5 Bft) 97,62 %
12.03.2017 12:34 7,6 C 69 % 1018,2 hPa 0,0 l/m 18,6 km/h (3 Bft) O-NO 66 2 min 0,000 mm 2,3 UV-I 735 W/m 2,3 C 0,7 C 25,7 km/h (4 Bft) 100,00 %
12.03.2017 12:36 7,7 C 68 % 1018,2 hPa 0,0 l/m 26,3 km/h (4 Bft) N-NO 33 2 min 0,000 mm 2,3 UV-I 766 W/m 2,2 C -1,6 C 32,2 km/h (5 Bft) 95,12 %
12.03.2017 12:38 7,7 C 66 % 1018,2 hPa 0,0 l/m 21,3 km/h (4 Bft) NO 54 2 min 0,000 mm 2,2 UV-I 754 W/m 1,8 C -0,1 C 32,2 km/h (5 Bft) 94,00 %
12.03.2017 12:40 7,4 C 65 % 1018,2 hPa 0,0 l/m 18,3 km/h (3 Bft) NO 37 2 min 0,000 mm 1,9 UV-I 724 W/m 1,3 C 0,6 C 25,7 km/h (4 Bft) 97,87 %
12.03.2017 12:42 7,3 C 66 % 1018,2 hPa 0,0 l/m 19,2 km/h (3 Bft) O-NO 76 2 min 0,000 mm 2,1 UV-I 704 W/m 1,4 C 0,1 C 25,7 km/h (4 Bft) 100,00 %
12.03.2017 12:44 7,2 C 64 % 1018,2 hPa 0,0 l/m 21,4 km/h (4 Bft) O-NO 59 2 min 0,000 mm 2,2 UV-I 679 W/m 0,9 C -0,8 C 29,0 km/h (5 Bft) 97,44 %
12.03.2017 12:46 7,1 C 64 % 1018,1 hPa 0,0 l/m 18,5 km/h (3 Bft) NO 47 2 min 0,000 mm 2,2 UV-I 678 W/m 0,8 C 0,1 C 27,4 km/h (4 Bft) 90,91 %
12.03.2017 12:48 7,3 C 67 % 1018,1 hPa 0,0 l/m 18,4 km/h (3 Bft) O-NO 71 2 min 0,000 mm 2,2 UV-I 674 W/m 1,6 C 0,4 C 27,4 km/h (4 Bft) 94,34 %
12.03.2017 12:50 7,3 C 63 % 1018,1 hPa 0,0 l/m 23,4 km/h (4 Bft) O-NO 65 2 min 0,000 mm 2,2 UV-I 667 W/m 0,7 C -1,3 C 32,2 km/h (5 Bft) 94,00 %
12.03.2017 12:52 7,2 C 65 % 1018,2 hPa 0,0 l/m 14,9 km/h (3 Bft) O-NO 58 2 min 0,000 mm 2,2 UV-I 668 W/m 1,1 C 1,8 C 20,9 km/h (4 Bft) 92,11 %
12.03.2017 12:54 7,3 C 65 % 1018,2 hPa 0,0 l/m 15,2 km/h (3 Bft) O-NO 61 2 min 0,000 mm 2,2 UV-I 666 W/m 1,2 C 1,8 C 19,3 km/h (3 Bft) 96,00 %
12.03.2017 12:56 7,3 C 65 % 1018,1 hPa 0,0 l/m 22,7 km/h (4 Bft) NO 44 2 min 0,000 mm 2,2 UV-I 679 W/m 1,2 C -1,1 C 29,0 km/h (5 Bft) 88,57 %
12.03.2017 12:58 7,6 C 66 % 1018,1 hPa 0,0 l/m 18,8 km/h (3 Bft) NO 38 2 min 0,000 mm 2,2 UV-I 685 W/m 1,7 C 0,6 C 24,1 km/h (4 Bft) 92,73 %
12.03.2017 13:00 7,5 C 66 % 1018,0 hPa 0,0 l/m 18,9 km/h (3 Bft) O-NO 68 2 min 0,355 mm 2,1 UV-I 692 W/m 1,6 C 0,5 C 24,1 km/h (4 Bft) 98,11 %
12.03.2017 13:02 7,4 C 62 % 1018,1 hPa 0,0 l/m 22,6 km/h (4 Bft) O-NO 75 2 min 0,000 mm 2,1 UV-I 675 W/m 0,6 C -1,0 C 32,2 km/h (5 Bft) 97,56 %
12.03.2017 13:04 7,2 C 64 % 1018,1 hPa 0,0 l/m 20,0 km/h (4 Bft) O 82 2 min 0,000 mm 1,9 UV-I 679 W/m 0,9 C -0,3 C 25,7 km/h (4 Bft) 90,57 %
12.03.2017 13:06 7,1 C 65 % 1018,0 hPa 0,0 l/m 19,0 km/h (3 Bft) O-NO 71 2 min 0,000 mm 1,8 UV-I 680 W/m 1,0 C -0,1 C 25,7 km/h (4 Bft) 95,45 %
12.03.2017 13:08 7,1 C 68 % 1018,0 hPa 0,0 l/m 21,3 km/h (4 Bft) O-NO 68 2 min 0,000 mm 2,1 UV-I 662 W/m 1,6 C -0,9 C 32,2 km/h (5 Bft) 97,87 %
12.03.2017 13:10 7,1 C 67 % 1018,0 hPa 0,0 l/m 17,7 km/h (3 Bft) O-NO 57 2 min 0,000 mm 2,1 UV-I 643 W/m 1,4 C 0,4 C 30,6 km/h (5 Bft) 96,00 %
12.03.2017 13:12 7,1 C 65 % 1017,9 hPa 0,0 l/m 19,5 km/h (3 Bft) O-NO 65 2 min 0,000 mm 2,1 UV-I 638 W/m 1,0 C -0,3 C 27,4 km/h (4 Bft) 93,18 %
12.03.2017 13:14 7,2 C 68 % 1017,9 hPa 0,0 l/m 17,5 km/h (3 Bft) O-NO 72 2 min 0,000 mm 2,0 UV-I 640 W/m 1,7 C 0,6 C 24,1 km/h (4 Bft) 95,45 %
12.03.2017 13:16 7,3 C 66 % 1017,9 hPa 0,0 l/m 22,1 km/h (4 Bft) NO 55 2 min 0,000 mm 2,1 UV-I 657 W/m 1,4 C -0,9 C 33,8 km/h (5 Bft) 100,00 %
12.03.2017 13:18 7,3 C 65 % 1017,9 hPa 0,0 l/m 24,3 km/h (4 Bft) NO 39 2 min 0,000 mm 2,0 UV-I 662 W/m 1,2 C -1,6 C 35,4 km/h (5 Bft) 92,86 %
12.03.2017 13:20 7,3 C 65 % 1017,8 hPa 0,0 l/m 18,3 km/h (3 Bft) O-NO 76 2 min 0,000 mm 2,0 UV-I 646 W/m 1,2 C 0,4 C 24,1 km/h (4 Bft) 94,55 %
12.03.2017 13:22 7,3 C 65 % 1017,8 hPa 0,0 l/m 21,6 km/h (4 Bft) NO 38 2 min 0,000 mm 2,0 UV-I 638 W/m 1,2 C -0,8 C 29,0 km/h (5 Bft) 100,00 %
12.03.2017 13:24 7,3 C 64 % 1017,8 hPa 0,0 l/m 20,6 km/h (4 Bft) O-NO 63 2 min 0,000 mm 2,0 UV-I 632 W/m 1,0 C -0,4 C 25,7 km/h (4 Bft) 98,11 %
12.03.2017 13:26 7,3 C 62 % 1017,8 hPa 0,0 l/m 20,4 km/h (4 Bft) O-NO 65 2 min 0,000 mm 2,0 UV-I 628 W/m 0,5 C -0,3 C 25,7 km/h (4 Bft) 93,65 %
12.03.2017 13:28 7,2 C 60 % 1017,8 hPa 0,0 l/m 21,4 km/h (4 Bft) NO 55 2 min 0,000 mm 2,0 UV-I 625 W/m -0,0 C -0,8 C 27,4 km/h (4 Bft) 92,31 %
12.03.2017 13:30 7,2 C 62 % 1017,8 hPa 0,0 l/m 19,6 km/h (3 Bft) N-NO 31 2 min 0,000 mm 1,9 UV-I 627 W/m 0,4 C -0,2 C 25,7 km/h (4 Bft) 98,46 %
12.03.2017 13:32 7,3 C 64 % 1017,7 hPa 0,0 l/m 18,3 km/h (3 Bft) O-NO 64 2 min 0,000 mm 1,9 UV-I 625 W/m 1,0 C 0,4 C 22,5 km/h (4 Bft) 96,00 %
12.03.2017 13:35 7,3 C 61 % 1017,7 hPa 0,0 l/m 20,6 km/h (4 Bft) O-NO 73 3 min 0,000 mm 1,9 UV-I 620 W/m 0,3 C -0,4 C 30,6 km/h (5 Bft) 92,19 %
12.03.2017 13:36 7,3 C 61 % 1017,7 hPa 0,0 l/m 20,5 km/h (4 Bft) N-NO 27 1 min 0,000 mm 1,9 UV-I 611 W/m 0,3 C -0,4 C 24,1 km/h (4 Bft) 96,67 %
12.03.2017 13:38 7,3 C 62 % 1017,7 hPa 0,0 l/m 20,6 km/h (4 Bft) NO 54 2 min 0,000 mm 1,9 UV-I 611 W/m 0,5 C -0,4 C 27,4 km/h (4 Bft) 100,00 %
12.03.2017 13:40 7,3 C 61 % 1017,7 hPa 0,0 l/m 20,9 km/h (4 Bft) NO 51 2 min 0,000 mm 1,9 UV-I 616 W/m 0,3 C -0,5 C 29,0 km/h (5 Bft) 85,11 %
12.03.2017 13:42 7,2 C 60 % 1017,7 hPa 0,0 l/m 18,6 km/h (3 Bft) NO 50 2 min 0,000 mm 1,8 UV-I 608 W/m -0,0 C 0,2 C 24,1 km/h (4 Bft) 96,23 %
12.03.2017 13:44 7,4 C 63 % 1017,6 hPa 0,0 l/m 20,0 km/h (4 Bft) O-NO 65 2 min 0,000 mm 1,8 UV-I 611 W/m 0,8 C -0,1 C 29,0 km/h (5 Bft) 97,37 %
12.03.2017 13:46 7,4 C 61 % 1017,6 hPa 0,0 l/m 21,2 km/h (4 Bft) O-NO 68 2 min 0,000 mm 1,8 UV-I 618 W/m 0,4 C -0,5 C 25,7 km/h (4 Bft) 98,11 %
12.03.2017 13:48 7,4 C 59 % 1017,6 hPa 0,0 l/m 21,2 km/h (4 Bft) NO 37 2 min 0,000 mm 1,7 UV-I 634 W/m -0,1 C -0,5 C 27,4 km/h (4 Bft) 95,74 %
12.03.2017 13:50 7,2 C 62 % 1017,6 hPa 0,0 l/m 16,7 km/h (3 Bft) O-NO 72 0 min 0,000 mm 1,3 UV-I 274 W/m 0,4 C 1,0 C 22,5 km/h (4 Bft) 94,59 %
12.03.2017 13:52 7,1 C 64 % 1017,6 hPa 0,0 l/m 16,1 km/h (3 Bft) NO 34 2 min 0,000 mm 1,5 UV-I 415 W/m 0,8 C 1,1 C 25,7 km/h (4 Bft) 96,23 %
12.03.2017 13:54 7,4 C 67 % 1017,6 hPa 0,0 l/m 14,7 km/h (3 Bft) NO 51 2 min 0,000 mm 1,7 UV-I 604 W/m 1,7 C 2,1 C 20,9 km/h (4 Bft) 98,00 %
12.03.2017 13:56 7,4 C 62 % 1017,6 hPa 0,0 l/m 21,5 km/h (4 Bft) O-NO 65 2 min 0,000 mm 1,7 UV-I 601 W/m 0,6 C -0,6 C 25,7 km/h (4 Bft) 93,62 %
12.03.2017 13:58 7,5 C 62 % 1017,6 hPa 0,0 l/m 24,0 km/h (4 Bft) O-NO 76 2 min 0,000 mm 1,7 UV-I 601 W/m 0,7 C -1,3 C 33,8 km/h (5 Bft) 95,83 %
12.03.2017 14:00 7,5 C 61 % 1017,6 hPa 0,0 l/m 24,4 km/h (4 Bft) NO 49 2 min 0,000 mm 1,7 UV-I 607 W/m 0,5 C -1,4 C 33,8 km/h (5 Bft) 91,49 %
12.03.2017 14:02 7,4 C 59 % 1017,6 hPa 0,0 l/m 17,1 km/h (3 Bft) NO 46 2 min 0,331 mm 1,7 UV-I 600 W/m -0,1 C 1,1 C 22,5 km/h (4 Bft) 96,00 %
12.03.2017 14:04 7,4 C 61 % 1017,6 hPa 0,0 l/m 22,9 km/h (4 Bft) O-NO 74 2 min 0,000 mm 1,7 UV-I 594 W/m 0,4 C -1,1 C 29,0 km/h (5 Bft) 89,36 %
12.03.2017 14:06 7,5 C 61 % 1017,6 hPa 0,0 l/m 22,1 km/h (4 Bft) NO 51 2 min 0,000 mm 1,6 UV-I 598 W/m 0,5 C -0,7 C 30,6 km/h (5 Bft) 95,74 %
12.03.2017 14:08 7,6 C 60 % 1017,6 hPa 0,0 l/m 18,3 km/h (3 Bft) O-NO 59 2 min 0,000 mm 1,6 UV-I 590 W/m 0,3 C 0,8 C 24,1 km/h (4 Bft) 97,87 %
12.03.2017 14:10 7,6 C 58 % 1017,6 hPa 0,0 l/m 18,7 km/h (3 Bft) O 79 2 min 0,000 mm 1,5 UV-I 592 W/m -0,1 C 0,7 C 25,7 km/h (4 Bft) 89,47 %
12.03.2017 14:12 7,4 C 58 % 1017,6 hPa 0,0 l/m 20,7 km/h (4 Bft) O-NO 61 2 min 0,000 mm 1,5 UV-I 506 W/m -0,3 C -0,3 C 29,0 km/h (5 Bft) 97,87 %
12.03.2017 14:14 7,3 C 61 % 1017,6 hPa 0,0 l/m 19,3 km/h (3 Bft) O 80 2 min 0,000 mm 1,6 UV-I 559 W/m 0,3 C 0,1 C 29,0 km/h (5 Bft) 97,87 %
12.03.2017 14:16 7,4 C 61 % 1017,5 hPa 0,0 l/m 18,4 km/h (3 Bft) O 88 2 min 0,000 mm 1,5 UV-I 567 W/m 0,4 C 0,5 C 27,4 km/h (4 Bft) 89,36 %
12.03.2017 14:18 7,5 C 61 % 1017,6 hPa 0,0 l/m 20,5 km/h (4 Bft) NO 42 2 min 0,000 mm 1,5 UV-I 568 W/m 0,5 C -0,1 C 30,6 km/h (5 Bft) 93,62 %
12.03.2017 14:20 7,5 C 60 % 1017,6 hPa 0,0 l/m 19,9 km/h (4 Bft) NO 51 2 min 0,000 mm 1,5 UV-I 573 W/m 0,2 C 0,1 C 30,6 km/h (5 Bft) 91,49 %
12.03.2017 14:22 7,5 C 59 % 1017,5 hPa 0,0 l/m 16,1 km/h (3 Bft) O-NO 67 2 min 0,000 mm 1,5 UV-I 560 W/m 0,0 C 1,6 C 20,9 km/h (4 Bft) 95,74 %
12.03.2017 14:25 7,5 C 61 % 1017,5 hPa 0,0 l/m 22,9 km/h (4 Bft) NO 55 3 min 0,000 mm 1,5 UV-I 551 W/m 0,5 C -0,9 C 30,6 km/h (5 Bft) 91,89 %
12.03.2017 14:26 7,5 C 59 % 1017,5 hPa 0,0 l/m 22,9 km/h (4 Bft) O 88 1 min 0,000 mm 1,4 UV-I 542 W/m 0,0 C -0,9 C 30,6 km/h (5 Bft) 96,15 %
12.03.2017 14:28 7,4 C 59 % 1017,4 hPa 0,0 l/m 20,7 km/h (4 Bft) O-NO 61 2 min 0,000 mm 1,4 UV-I 533 W/m -0,1 C -0,3 C 32,2 km/h (5 Bft) 91,49 %
12.03.2017 14:30 7,4 C 58 % 1017,5 hPa 0,0 l/m 23,4 km/h (4 Bft) O-NO 64 2 min 0,000 mm 1,4 UV-I 532 W/m -0,3 C -1,2 C 30,6 km/h (5 Bft) 93,62 %
12.03.2017 14:32 7,3 C 58 % 1017,4 hPa 0,0 l/m 21,6 km/h (4 Bft) O 79 2 min 0,000 mm 1,4 UV-I 530 W/m -0,4 C -0,8 C 29,0 km/h (5 Bft) 95,83 %
12.03.2017 14:34 7,4 C 59 % 1017,5 hPa 0,0 l/m 20,5 km/h (4 Bft) O-NO 78 2 min 0,000 mm 1,3 UV-I 521 W/m -0,1 C -0,3 C 29,0 km/h (5 Bft) 93,55 %
12.03.2017 14:36 7,3 C 58 % 1017,4 hPa 0,0 l/m 19,3 km/h (3 Bft) O-NO 72 2 min 0,000 mm 1,3 UV-I 513 W/m -0,4 C 0,1 C 24,1 km/h (4 Bft) 94,34 %
12.03.2017 14:38 7,4 C 59 % 1017,4 hPa 0,0 l/m 19,8 km/h (3 Bft) NO 41 2 min 0,000 mm 1,3 UV-I 509 W/m -0,1 C 0,0 C 27,4 km/h (4 Bft) 93,62 %
12.03.2017 14:40 7,6 C 59 % 1017,5 hPa 0,0 l/m 19,2 km/h (3 Bft) O-NO 58 2 min 0,000 mm 1,3 UV-I 500 W/m 0,1 C 0,5 C 29,0 km/h (5 Bft) 95,83 %
12.03.2017 14:42 7,5 C 57 % 1017,4 hPa 0,0 l/m 18,4 km/h (3 Bft) NO 56 2 min 0,000 mm 1,3 UV-I 495 W/m -0,5 C 0,7 C 24,1 km/h (4 Bft) 95,74 %
12.03.2017 14:44 7,5 C 57 % 1017,4 hPa 0,0 l/m 20,3 km/h (4 Bft) NO 41 2 min 0,000 mm 1,3 UV-I 490 W/m -0,5 C -0,1 C 25,7 km/h (4 Bft) 97,56 %
12.03.2017 14:46 7,4 C 55 % 1017,5 hPa 0,0 l/m 20,2 km/h (4 Bft) O-NO 76 2 min 0,000 mm 1,2 UV-I 485 W/m -1,0 C -0,1 C 25,7 km/h (4 Bft) 92,00 %
12.03.2017 14:48 7,4 C 58 % 1017,4 hPa 0,0 l/m 19,7 km/h (3 Bft) NO 38 2 min 0,000 mm 1,2 UV-I 480 W/m -0,3 C 0,0 C 27,4 km/h (4 Bft) 95,74 %
12.03.2017 14:50 7,4 C 56 % 1017,4 hPa 0,0 l/m 17,3 km/h (3 Bft) O-NO 66 2 min 0,000 mm 1,2 UV-I 476 W/m -0,8 C 1,0 C 25,7 km/h (4 Bft) 96,00 %
12.03.2017 14:52 7,4 C 57 % 1017,4 hPa 0,0 l/m 17,2 km/h (3 Bft) NO 53 2 min 0,000 mm 1,2 UV-I 465 W/m -0,5 C 1,0 C 24,1 km/h (4 Bft) 97,37 %
12.03.2017 14:54 7,4 C 56 % 1017,4 hPa 0,0 l/m 17,9 km/h (3 Bft) O-SO 105 2 min 0,000 mm 1,1 UV-I 456 W/m -0,8 C 0,7 C 25,7 km/h (4 Bft) 95,74 %
12.03.2017 14:56 7,4 C 58 % 1017,3 hPa 0,0 l/m 14,6 km/h (3 Bft) N-NO 28 2 min 0,000 mm 1,1 UV-I 461 W/m -0,3 C 2,2 C 20,9 km/h (4 Bft) 95,74 %
12.03.2017 14:58 7,6 C 59 % 1017,3 hPa 0,0 l/m 16,3 km/h (3 Bft) NO 52 2 min 0,000 mm 1,1 UV-I 459 W/m 0,1 C 1,6 C 22,5 km/h (4 Bft) 98,00 %
12.03.2017 15:00 7,6 C 59 % 1017,3 hPa 0,0 l/m 19,4 km/h (3 Bft) NO 53 2 min 0,000 mm 1,1 UV-I 453 W/m 0,1 C 0,4 C 27,4 km/h (4 Bft) 95,74 %
12.03.2017 15:03 7,4 C 55 % 1017,3 hPa 0,0 l/m 21,3 km/h (4 Bft) NO 46 3 min 0,304 mm 1,1 UV-I 446 W/m -1,0 C -0,5 C 27,4 km/h (4 Bft) 97,18 %
12.03.2017 15:04 7,4 C 54 % 1017,3 hPa 0,0 l/m 19,5 km/h (3 Bft) O-NO 57 1 min 0,000 mm 1,0 UV-I 442 W/m -1,3 C 0,1 C 24,1 km/h (4 Bft) 100,00 %
12.03.2017 15:06 7,3 C 54 % 1017,2 hPa 0,0 l/m 18,5 km/h (3 Bft) O-NO 73 2 min 0,000 mm 1,0 UV-I 438 W/m -1,4 C 0,4 C 24,1 km/h (4 Bft) 95,74 %
12.03.2017 15:08 7,4 C 59 % 1017,2 hPa 0,0 l/m 18,5 km/h (3 Bft) O-NO 66 2 min 0,000 mm 1,0 UV-I 431 W/m -0,1 C 0,5 C 29,0 km/h (5 Bft) 95,74 %
12.03.2017 15:10 7,4 C 56 % 1017,2 hPa 0,0 l/m 20,8 km/h (4 Bft) O-NO 65 2 min 0,000 mm 1,0 UV-I 426 W/m -0,8 C -0,4 C 29,0 km/h (5 Bft) 97,87 %
12.03.2017 15:12 7,4 C 56 % 1017,2 hPa 0,0 l/m 19,9 km/h (4 Bft) O-NO 60 2 min 0,000 mm 1,0 UV-I 421 W/m -0,8 C -0,0 C 29,0 km/h (5 Bft) 98,00 %
12.03.2017 15:14 7,4 C 56 % 1017,2 hPa 0,0 l/m 15,9 km/h (3 Bft) O-NO 61 2 min 0,000 mm 0,9 UV-I 413 W/m -0,8 C 1,6 C 24,1 km/h (4 Bft) 95,74 %
12.03.2017 15:16 7,4 C 55 % 1017,2 hPa 0,0 l/m 15,5 km/h (3 Bft) NO 55 2 min 0,000 mm 0,9 UV-I 408 W/m -1,0 C 1,8 C 27,4 km/h (4 Bft) 95,74 %
12.03.2017 15:18 7,5 C 56 % 1017,2 hPa 0,0 l/m 15,1 km/h (3 Bft) NO 51 2 min 0,000 mm 0,9 UV-I 404 W/m -0,7 C 2,1 C 22,5 km/h (4 Bft) 97,37 %
12.03.2017 15:20 7,6 C 58 % 1017,1 hPa 0,0 l/m 14,2 km/h (3 Bft) O-NO 63 2 min 0,000 mm 0,9 UV-I 399 W/m -0,1 C 2,6 C 22,5 km/h (4 Bft) 95,74 %
12.03.2017 15:22 7,6 C 54 % 1017,2 hPa 0,0 l/m 16,8 km/h (3 Bft) NO 54 2 min 0,000 mm 0,8 UV-I 394 W/m -1,1 C 1,4 C 25,7 km/h (4 Bft) 98,00 %
12.03.2017 15:24 7,4 C 53 % 1017,2 hPa 0,0 l/m 14,3 km/h (3 Bft) O-NO 60 2 min 0,000 mm 0,8 UV-I 387 W/m -1,5 C 2,3 C 20,9 km/h (4 Bft) 95,74 %
12.03.2017 15:26 7,4 C 53 % 1017,1 hPa 0,0 l/m 16,9 km/h (3 Bft) O 90 2 min 0,000 mm 0,8 UV-I 382 W/m -1,5 C 1,1 C 25,7 km/h (4 Bft) 97,87 %
12.03.2017 15:28 7,4 C 54 % 1017,2 hPa 0,0 l/m 18,5 km/h (3 Bft) O-NO 59 2 min 0,000 mm 0,8 UV-I 378 W/m -1,3 C 0,5 C 24,1 km/h (4 Bft) 95,92 %
12.03.2017 15:30 7,4 C 55 % 1017,1 hPa 0,0 l/m 18,9 km/h (3 Bft) O 85 2 min 0,000 mm 0,8 UV-I 371 W/m -1,0 C 0,3 C 25,7 km/h (4 Bft) 93,62 %
12.03.2017 15:32 7,4 C 55 % 1017,1 hPa 0,0 l/m 19,5 km/h (3 Bft) O-NO 59 2 min 0,000 mm 0,8 UV-I 366 W/m -1,0 C 0,1 C 27,4 km/h (4 Bft) 93,62 %
12.03.2017 15:34 7,4 C 53 % 1017,1 hPa 0,0 l/m 19,8 km/h (3 Bft) O-NO 67 2 min 0,000 mm 0,7 UV-I 362 W/m -1,5 C 0,0 C 25,7 km/h (4 Bft) 97,73 %
12.03.2017 15:36 7,3 C 52 % 1017,0 hPa 0,0 l/m 15,5 km/h (3 Bft) O-NO 70 2 min 0,000 mm 0,7 UV-I 359 W/m -1,9 C 1,6 C 22,5 km/h (4 Bft) 97,87 %
12.03.2017 15:38 7,3 C 53 % 1017,1 hPa 0,0 l/m 16,1 km/h (3 Bft) O-NO 71 2 min 0,000 mm 0,7 UV-I 354 W/m -1,6 C 1,4 C 27,4 km/h (4 Bft) 93,62 %
12.03.2017 15:40 7,3 C 53 % 1017,0 hPa 0,0 l/m 18,6 km/h (3 Bft) O 100 2 min 0,000 mm 0,7 UV-I 346 W/m -1,6 C 0,3 C 27,4 km/h (4 Bft) 97,87 %
12.03.2017 15:42 7,3 C 54 % 1017,1 hPa 0,0 l/m 18,1 km/h (3 Bft) N-NO 26 2 min 0,000 mm 0,7 UV-I 340 W/m -1,4 C 0,5 C 29,0 km/h (5 Bft) 96,00 %
12.03.2017 15:44 7,3 C 53 % 1017,1 hPa 0,0 l/m 18,5 km/h (3 Bft) O-NO 63 2 min 0,000 mm 0,6 UV-I 335 W/m -1,6 C 0,4 C 24,1 km/h (4 Bft) 89,36 %
12.03.2017 15:46 7,2 C 53 % 1017,0 hPa 0,0 l/m 19,5 km/h (3 Bft) NO 36 2 min 0,000 mm 0,6 UV-I 330 W/m -1,7 C -0,1 C 25,7 km/h (4 Bft) 97,37 %
12.03.2017 15:48 7,2 C 54 % 1017,0 hPa 0,0 l/m 17,5 km/h (3 Bft) O-NO 63 2 min 0,000 mm 0,6 UV-I 324 W/m -1,5 C 0,6 C 24,1 km/h (4 Bft) 96,00 %
12.03.2017 15:50 7,2 C 55 % 1017,0 hPa 0,0 l/m 17,7 km/h (3 Bft) NO 48 2 min 0,000 mm 0,6 UV-I 318 W/m -1,2 C 0,6 C 24,1 km/h (4 Bft) 96,00 %
12.03.2017 15:53 7,2 C 56 % 1017,0 hPa 0,0 l/m 19,1 km/h (3 Bft) NO 55 3 min 0,000 mm 0,6 UV-I 310 W/m -1,0 C 0,0 C 29,0 km/h (5 Bft) 92,96 %
12.03.2017 15:54 7,1 C 54 % 1017,0 hPa 0,0 l/m 13,6 km/h (3 Bft) O-NO 60 1 min 0,000 mm 0,5 UV-I 302 W/m -1,6 C 2,3 C 20,9 km/h (4 Bft) 95,65 %
12.03.2017 15:56 7,1 C 56 % 1017,0 hPa 0,0 l/m 21,1 km/h (4 Bft) NO 45 2 min 0,000 mm 0,5 UV-I 298 W/m -1,1 C -0,9 C 30,6 km/h (5 Bft) 97,87 %
12.03.2017 15:59 7,1 C 56 % 1017,0 hPa 0,0 l/m 17,0 km/h (3 Bft) O-NO 61 3 min 0,000 mm 0,5 UV-I 292 W/m -1,1 C 0,7 C 25,7 km/h (4 Bft) 97,18 %
12.03.2017 16:00 7,1 C 56 % 1017,0 hPa 0,0 l/m 20,7 km/h (4 Bft) NO 51 1 min 0,000 mm 0,5 UV-I 285 W/m -1,1 C -0,7 C 29,0 km/h (5 Bft) 100,00 %
12.03.2017 16:04 7,1 C 58 % 1017,0 hPa 0,0 l/m 18,6 km/h (3 Bft) NO 56 4 min 0,229 mm 0,5 UV-I 279 W/m -0,6 C 0,1 C 30,6 km/h (5 Bft) 98,00 %
12.03.2017 16:06 7,1 C 58 % 1016,9 hPa 0,0 l/m 18,1 km/h (3 Bft) O-NO 64 2 min 0,000 mm 0,3 UV-I 269 W/m -0,6 C 0,3 C 24,1 km/h (4 Bft) 100,00 %
12.03.2017 16:09 7,0 C 58 % 1016,9 hPa 0,0 l/m 19,0 km/h (3 Bft) NO 53 3 min 0,000 mm 0,0 UV-I 263 W/m -0,7 C -0,2 C 29,0 km/h (5 Bft) 95,89 %
12.03.2017 16:10 7,0 C 58 % 1016,9 hPa 0,0 l/m 16,6 km/h (3 Bft) O 81 1 min 0,000 mm 0,0 UV-I 256 W/m -0,7 C 0,8 C 20,9 km/h (4 Bft) 95,83 %
12.03.2017 16:14 6,9 C 59 % 1017,0 hPa 0,0 l/m 21,1 km/h (4 Bft) NO 48 4 min 0,000 mm 0,0 UV-I 250 W/m -0,5 C -1,1 C 29,0 km/h (5 Bft) 94,68 %
12.03.2017 16:16 6,8 C 57 % 1016,9 hPa 0,0 l/m 20,6 km/h (4 Bft) O-NO 59 2 min 0,000 mm 0,0 UV-I 244 W/m -1,1 C -1,1 C 30,6 km/h (5 Bft) 93,88 %
12.03.2017 16:19 6,8 C 59 % 1017,0 hPa 0,0 l/m 20,8 km/h (4 Bft) O-NO 60 3 min 0,000 mm 0,0 UV-I 234 W/m -0,6 C -1,1 C 27,4 km/h (4 Bft) 94,37 %
12.03.2017 16:20 6,8 C 59 % 1017,0 hPa 0,0 l/m 19,8 km/h (3 Bft) O-NO 67 1 min 0,000 mm 0,0 UV-I 226 W/m -0,6 C -0,8 C 25,7 km/h (4 Bft) 100,00 %
12.03.2017 16:24 6,7 C 58 % 1016,9 hPa 0,0 l/m 17,0 km/h (3 Bft) O-NO 65 4 min 0,000 mm 0,0 UV-I 222 W/m -1,0 C 0,2 C 29,0 km/h (5 Bft) 94,85 %
12.03.2017 16:26 6,7 C 58 % 1017,0 hPa 0,0 l/m 15,9 km/h (3 Bft) O-NO 61 2 min 0,000 mm 0,0 UV-I 214 W/m -1,0 C 0,7 C 24,1 km/h (4 Bft) 95,92 %
12.03.2017 16:29 6,7 C 57 % 1016,9 hPa 0,0 l/m 16,4 km/h (3 Bft) O-NO 74 3 min 0,000 mm 0,0 UV-I 207 W/m -1,2 C 0,5 C 24,1 km/h (4 Bft) 94,37 %
12.03.2017 16:30 6,7 C 58 % 1016,9 hPa 0,0 l/m 18,3 km/h (3 Bft) NO 44 1 min 0,000 mm 0,0 UV-I 202 W/m -1,0 C -0,3 C 24,1 km/h (4 Bft) 96,15 %
12.03.2017 16:34 6,6 C 59 % 1016,9 hPa 0,0 l/m 19,9 km/h (4 Bft) NO 53 4 min 0,000 mm 0,0 UV-I 196 W/m -0,8 C -1,1 C 29,0 km/h (5 Bft) 95,88 %
12.03.2017 16:36 6,6 C 58 % 1016,8 hPa 0,0 l/m 21,9 km/h (4 Bft) O-NO 66 2 min 0,000 mm 0,0 UV-I 187 W/m -1,1 C -1,8 C 29,0 km/h (5 Bft) 100,00 %
12.03.2017 16:39 6,5 C 59 % 1016,8 hPa 0,0 l/m 22,3 km/h (4 Bft) N 11 3 min 0,000 mm 0,0 UV-I 180 W/m -0,9 C -2,1 C 29,0 km/h (5 Bft) 98,63 %
12.03.2017 16:40 6,4 C 59 % 1016,8 hPa 0,0 l/m 19,2 km/h (3 Bft) O-NO 63 1 min 0,000 mm 0,0 UV-I 174 W/m -1,0 C -1,1 C 22,5 km/h (4 Bft) 100,00 %
12.03.2017 16:44 6,4 C 58 % 1016,8 hPa 0,0 l/m 20,6 km/h (4 Bft) NO 55 4 min 0,000 mm 0,0 UV-I 167 W/m -1,2 C -1,6 C 27,4 km/h (4 Bft) 100,00 %
12.03.2017 16:46 6,3 C 58 % 1016,9 hPa 0,0 l/m 19,8 km/h (3 Bft) O-NO 77 2 min 0,000 mm 0,0 UV-I 161 W/m -1,3 C -1,4 C 24,1 km/h (4 Bft) 100,00 %
12.03.2017 16:49 6,3 C 59 % 1016,8 hPa 0,0 l/m 20,6 km/h (4 Bft) O-NO 77 3 min 0,000 mm 0,0 UV-I 153 W/m -1,1 C -1,7 C 30,6 km/h (5 Bft) 97,14 %
12.03.2017 16:50 6,3 C 59 % 1016,8 hPa 0,0 l/m 19,9 km/h (4 Bft) O 84 1 min 0,000 mm 0,0 UV-I 148 W/m -1,1 C -1,5 C 25,7 km/h (4 Bft) 100,00 %
12.03.2017 16:54 6,3 C 60 % 1016,9 hPa 0,0 l/m 19,2 km/h (3 Bft) NO 54 4 min 0,000 mm 0,0 UV-I 143 W/m -0,9 C -1,2 C 27,4 km/h (4 Bft) 97,87 %
12.03.2017 16:56 6,3 C 59 % 1016,9 hPa 0,0 l/m 23,7 km/h (4 Bft) O-NO 74 2 min 0,000 mm 0,0 UV-I 135 W/m -1,1 C -2,8 C 29,0 km/h (5 Bft) 100,00 %
12.03.2017 16:59 6,2 C 59 % 1016,8 hPa 0,0 l/m 21,4 km/h (4 Bft) NO 39 3 min 0,000 mm 0,0 UV-I 129 W/m -1,2 C -2,1 C 27,4 km/h (4 Bft) 100,00 %
12.03.2017 17:00 6,2 C 59 % 1016,8 hPa 0,0 l/m 19,7 km/h (3 Bft) NO 40 1 min 0,152 mm 0,0 UV-I 125 W/m -1,2 C -1,5 C 27,4 km/h (4 Bft) 95,65 %
12.03.2017 17:04 6,1 C 60 % 1016,9 hPa 0,0 l/m 18,8 km/h (3 Bft) O-NO 59 4 min 0,000 mm 0,0 UV-I 118 W/m -1,1 C -1,3 C 27,4 km/h (4 Bft) 99,00 %
12.03.2017 17:06 6,1 C 60 % 1016,9 hPa 0,0 l/m 18,1 km/h (3 Bft) O-NO 63 2 min 0,000 mm 0,0 UV-I 110 W/m -1,1 C -1,0 C 24,1 km/h (4 Bft) 100,00 %
12.03.2017 17:09 6,1 C 59 % 1016,9 hPa 0,0 l/m 17,1 km/h (3 Bft) NO 55 3 min 0,000 mm 0,0 UV-I 104 W/m -1,3 C -0,6 C 25,7 km/h (4 Bft) 98,80 %
12.03.2017 17:10 6,1 C 59 % 1016,9 hPa 0,0 l/m 14,3 km/h (3 Bft) NO 41 1 min 0,000 mm 0,0 UV-I 98 W/m -1,3 C 0,8 C 17,7 km/h (3 Bft) 100,00 %
12.03.2017 17:14 6,0 C 59 % 1016,9 hPa 0,0 l/m 18,4 km/h (3 Bft) NO 36 4 min 0,000 mm 0,0 UV-I 93 W/m -1,4 C -1,2 C 25,7 km/h (4 Bft) 99,05 %
12.03.2017 17:16 5,9 C 60 % 1016,9 hPa 0,0 l/m 19,1 km/h (3 Bft) NO 35 2 min 0,000 mm 0,0 UV-I 86 W/m -1,3 C -1,7 C 29,0 km/h (5 Bft) 100,00 %
12.03.2017 17:19 5,9 C 59 % 1016,9 hPa 0,0 l/m 19,6 km/h (3 Bft) O-NO 57 3 min 0,000 mm 0,0 UV-I 80 W/m -1,5 C -1,9 C 25,7 km/h (4 Bft) 98,78 %
12.03.2017 17:20 5,9 C 60 % 1016,9 hPa 0,0 l/m 14,4 km/h (3 Bft) N-NO 31 1 min 0,000 mm 0,0 UV-I 75 W/m -1,3 C 0,5 C 19,3 km/h (3 Bft) 100,00 %
12.03.2017 17:24 5,8 C 60 % 1017,0 hPa 0,0 l/m 17,5 km/h (3 Bft) O-NO 57 4 min 0,000 mm 0,0 UV-I 69 W/m -1,4 C -1,1 C 25,7 km/h (4 Bft) 98,97 %
12.03.2017 17:26 5,8 C 60 % 1017,0 hPa 0,0 l/m 20,5 km/h (4 Bft) NO 42 2 min 0,000 mm 0,0 UV-I 64 W/m -1,4 C -2,3 C 29,0 km/h (5 Bft) 100,00 %
12.03.2017 17:29 5,8 C 60 % 1017,0 hPa 0,0 l/m 23,3 km/h (4 Bft) O-NO 78 3 min 0,000 mm 0,0 UV-I 60 W/m -1,4 C -3,3 C 30,6 km/h (5 Bft) 97,14 %
12.03.2017 17:30 5,8 C 61 % 1017,0 hPa 0,0 l/m 21,8 km/h (4 Bft) O-NO 59 1 min 0,000 mm 0,0 UV-I 54 W/m -1,1 C -2,8 C 27,4 km/h (4 Bft) 100,00 %
12.03.2017 17:34 5,7 C 61 % 1017,1 hPa 0,0 l/m 19,5 km/h (3 Bft) O-NO 64 4 min 0,000 mm 0,0 UV-I 49 W/m -1,2 C -2,1 C 27,4 km/h (4 Bft) 100,00 %
12.03.2017 17:36 5,7 C 61 % 1017,1 hPa 0,0 l/m 19,6 km/h (3 Bft) O-NO 57 2 min 0,000 mm 0,0 UV-I 43 W/m -1,2 C -2,1 C 24,1 km/h (4 Bft) 100,00 %
12.03.2017 17:40 5,6 C 62 % 1017,1 hPa 0,0 l/m 10,5 km/h (2 Bft) O-NO 63 4 min 0,000 mm 0,0 UV-I 35 W/m -1,1 C 2,4 C 17,7 km/h (3 Bft) 100,00 %
12.03.2017 17:42 5,6 C 62 % 1017,1 hPa 0,0 l/m 13,3 km/h (3 Bft) NO 49 2 min 0,000 mm 0,0 UV-I 33 W/m -1,1 C 0,7 C 19,3 km/h (3 Bft) 100,00 %
12.03.2017 17:44 5,5 C 62 % 1017,1 hPa 0,0 l/m 13,9 km/h (3 Bft) NO 47 2 min 0,000 mm 0,0 UV-I 30 W/m -1,2 C 0,3 C 17,7 km/h (3 Bft) 98,11 %
12.03.2017 17:46 5,4 C 62 % 1017,1 hPa 0,0 l/m 12,3 km/h (3 Bft) NO 42 2 min 0,000 mm 0,0 UV-I 23 W/m -1,3 C 1,0 C 19,3 km/h (3 Bft) 98,11 %
12.03.2017 17:48 5,4 C 62 % 1017,1 hPa 0,0 l/m 14,4 km/h (3 Bft) N-NO 32 0 min 0,000 mm 0,0 UV-I 17 W/m -1,3 C -0,1 C 20,9 km/h (4 Bft) 95,12 %
12.03.2017 17:50 5,3 C 62 % 1017,1 hPa 0,0 l/m 18,0 km/h (3 Bft) NO 53 0 min 0,000 mm 0,0 UV-I 13 W/m -1,4 C -2,0 C 24,1 km/h (4 Bft) 100,00 %
12.03.2017 17:52 5,3 C 62 % 1017,1 hPa 0,0 l/m 18,3 km/h (3 Bft) NO 46 0 min 0,000 mm 0,0 UV-I 12 W/m -1,4 C -2,1 C 24,1 km/h (4 Bft) 98,00 %
12.03.2017 17:54 5,3 C 62 % 1017,1 hPa 0,0 l/m 16,7 km/h (3 Bft) O-NO 62 2 min 0,000 mm 0,0 UV-I 11 W/m -1,4 C -1,4 C 25,7 km/h (4 Bft) 100,00 %
12.03.2017 17:56 5,3 C 61 % 1017,1 hPa 0,0 l/m 18,8 km/h (3 Bft) NO 55 0 min 0,000 mm 0,0 UV-I 11 W/m -1,6 C -2,3 C 24,1 km/h (4 Bft) 100,00 %
12.03.2017 17:58 5,2 C 62 % 1017,1 hPa 0,0 l/m 15,2 km/h (3 Bft) O-NO 65 0 min 0,000 mm 0,0 UV-I 10 W/m -1,5 C -0,8 C 25,7 km/h (4 Bft) 97,37 %
12.03.2017 18:00 5,2 C 62 % 1017,1 hPa 0,0 l/m 15,0 km/h (3 Bft) NO 50 0 min 0,000 mm 0,0 UV-I 9 W/m -1,5 C -0,7 C 20,9 km/h (4 Bft) 96,00 %
12.03.2017 18:02 5,1 C 62 % 1017,1 hPa 0,0 l/m 17,4 km/h (3 Bft) O-NO 57 0 min 0,077 mm 0,0 UV-I 7 W/m -1,6 C -1,9 C 22,5 km/h (4 Bft) 100,00 %
12.03.2017 18:04 5,1 C 63 % 1017,2 hPa 0,0 l/m 17,7 km/h (3 Bft) O-NO 59 0 min 0,000 mm 0,0 UV-I 7 W/m -1,4 C -2,1 C 22,5 km/h (4 Bft) 100,00 %
12.03.2017 18:06 5,1 C 62 % 1017,2 hPa 0,0 l/m 19,9 km/h (4 Bft) O-NO 66 0 min 0,000 mm 0,0 UV-I 7 W/m -1,6 C -3,0 C 27,4 km/h (4 Bft) 98,11 %
12.03.2017 18:08 5,0 C 63 % 1017,2 hPa 0,0 l/m 18,6 km/h (3 Bft) NO 53 0 min 0,000 mm 0,0 UV-I 5 W/m -1,4 C -2,6 C 29,0 km/h (5 Bft) 95,16 %
12.03.2017 18:10 5,0 C 63 % 1017,2 hPa 0,0 l/m 13,8 km/h (3 Bft) NO 53 0 min 0,000 mm 0,0 UV-I 5 W/m -1,4 C -0,3 C 19,3 km/h (3 Bft) 97,87 %
12.03.2017 18:12 4,9 C 64 % 1017,3 hPa 0,0 l/m 14,3 km/h (3 Bft) NO 56 0 min 0,000 mm 0,0 UV-I 5 W/m -1,3 C -0,7 C 17,7 km/h (3 Bft) 100,00 %
12.03.2017 18:14 4,9 C 64 % 1017,3 hPa 0,0 l/m 15,8 km/h (3 Bft) NO 51 0 min 0,000 mm 0,0 UV-I 5 W/m -1,3 C -1,4 C 20,9 km/h (4 Bft) 92,86 %
12.03.2017 18:16 4,8 C 65 % 1017,2 hPa 0,0 l/m 13,1 km/h (3 Bft) O-NO 64 0 min 0,000 mm 0,0 UV-I 4 W/m -1,2 C -0,1 C 17,7 km/h (3 Bft) 95,45 %
12.03.2017 18:19 4,7 C 65 % 1017,3 hPa 0,0 l/m 15,7 km/h (3 Bft) O-NO 62 0 min 0,000 mm 0,0 UV-I 0 W/m -1,3 C -1,6 C 22,5 km/h (4 Bft) 95,59 %
12.03.2017 18:20 4,7 C 65 % 1017,3 hPa 0,0 l/m 17,0 km/h (3 Bft) O-NO 57 0 min 0,000 mm 0,0 UV-I 0 W/m -1,3 C -2,3 C 19,3 km/h (3 Bft) 96,43 %
12.03.2017 18:22 4,7 C 65 % 1017,3 hPa 0,0 l/m 17,7 km/h (3 Bft) NO 43 0 min 0,000 mm 0,0 UV-I 0 W/m -1,3 C -2,6 C 25,7 km/h (4 Bft) 97,56 %
12.03.2017 18:24 4,7 C 65 % 1017,3 hPa 0,0 l/m 18,0 km/h (3 Bft) O-NO 67 0 min 0,000 mm 0,0 UV-I 0 W/m -1,3 C -2,7 C 25,7 km/h (4 Bft) 92,00 %
12.03.2017 18:26 4,7 C 65 % 1017,4 hPa 0,0 l/m 18,1 km/h (3 Bft) NO 56 0 min 0,000 mm 0,0 UV-I 0 W/m -1,3 C -2,8 C 25,7 km/h (4 Bft) 98,00 %
12.03.2017 18:28 4,6 C 65 % 1017,4 hPa 0,0 l/m 16,4 km/h (3 Bft) NO 55 0 min 0,000 mm 0,0 UV-I 0 W/m -1,4 C -2,1 C 20,9 km/h (4 Bft) 92,59 %
12.03.2017 18:30 4,6 C 66 % 1017,4 hPa 0,0 l/m 14,7 km/h (3 Bft) NO 50 0 min 0,000 mm 0,0 UV-I 0 W/m -1,2 C -1,3 C 20,9 km/h (4 Bft) 97,01 %
12.03.2017 18:32 4,5 C 65 % 1017,3 hPa 0,0 l/m 15,4 km/h (3 Bft) O-NO 58 0 min 0,000 mm 0,0 UV-I 0 W/m -1,5 C -1,7 C 20,9 km/h (4 Bft) 97,50 %
12.03.2017 18:34 4,5 C 66 % 1017,4 hPa 0,0 l/m 16,1 km/h (3 Bft) O-NO 65 0 min 0,000 mm 0,0 UV-I 0 W/m -1,3 C -2,1 C 20,9 km/h (4 Bft) 89,09 %
12.03.2017 18:36 4,4 C 66 % 1017,4 hPa 0,0 l/m 16,3 km/h (3 Bft) O-NO 61 0 min 0,000 mm 0,0 UV-I 0 W/m -1,4 C -2,3 C 20,9 km/h (4 Bft) 95,56 %
12.03.2017 18:38 4,3 C 66 % 1017,4 hPa 0,0 l/m 16,0 km/h (3 Bft) O-NO 63 0 min 0,000 mm 0,0 UV-I 0 W/m -1,5 C -2,3 C 24,1 km/h (4 Bft) 95,12 %
12.03.2017 18:40 4,3 C 66 % 1017,5 hPa 0,0 l/m 16,5 km/h (3 Bft) O-NO 59 0 min 0,000 mm 0,0 UV-I 0 W/m -1,5 C -2,5 C 20,9 km/h (4 Bft) 92,00 %
12.03.2017 18:42 4,3 C 66 % 1017,5 hPa 0,0 l/m 17,4 km/h (3 Bft) NO 53 0 min 0,000 mm 0,0 UV-I 0 W/m -1,5 C -3,0 C 24,1 km/h (4 Bft) 93,62 %
12.03.2017 18:44 4,3 C 66 % 1017,4 hPa 0,0 l/m 15,6 km/h (3 Bft) O-NO 58 0 min 0,000 mm 0,0 UV-I 0 W/m -1,5 C -2,1 C 22,5 km/h (4 Bft) 96,23 %
12.03.2017 18:46 4,3 C 66 % 1017,5 hPa 0,0 l/m 14,9 km/h (3 Bft) NO 51 0 min 0,000 mm 0,0 UV-I 0 W/m -1,5 C -1,7 C 20,9 km/h (4 Bft) 93,18 %
12.03.2017 18:48 4,2 C 67 % 1017,5 hPa 0,0 l/m 14,7 km/h (3 Bft) NO 49 0 min 0,000 mm 0,0 UV-I 0 W/m -1,4 C -1,7 C 17,7 km/h (3 Bft) 91,49 %
12.03.2017 18:50 4,2 C 67 % 1017,5 hPa 0,0 l/m 14,5 km/h (3 Bft) NO 53 0 min 0,000 mm 0,0 UV-I 0 W/m -1,4 C -1,6 C 19,3 km/h (3 Bft) 95,12 %
12.03.2017 18:52 4,1 C 68 % 1017,6 hPa 0,0 l/m 14,5 km/h (3 Bft) NO 49 0 min 0,000 mm 0,0 UV-I 0 W/m -1,3 C -1,7 C 17,7 km/h (3 Bft) 96,23 %
12.03.2017 18:54 4,1 C 68 % 1017,6 hPa 0,0 l/m 13,6 km/h (3 Bft) O-NO 59 0 min 0,000 mm 0,0 UV-I 0 W/m -1,3 C -1,2 C 16,1 km/h (3 Bft) 97,37 %
12.03.2017 18:56 4,0 C 68 % 1017,6 hPa 0,0 l/m 14,6 km/h (3 Bft) O-NO 61 0 min 0,000 mm 0,0 UV-I 0 W/m -1,4 C -1,9 C 19,3 km/h (3 Bft) 100,00 %
12.03.2017 18:58 3,9 C 68 % 1017,6 hPa 0,0 l/m 14,3 km/h (3 Bft) NO 45 0 min 0,000 mm 0,0 UV-I 0 W/m -1,5 C -1,9 C 17,7 km/h (3 Bft) 100,00 %
12.03.2017 19:00 3,9 C 68 % 1017,7 hPa 0,0 l/m 14,8 km/h (3 Bft) NO 54 0 min 0,050 mm 0,0 UV-I 0 W/m -1,5 C -2,1 C 20,9 km/h (4 Bft) 95,74 %
12.03.2017 19:02 3,9 C 69 % 1017,7 hPa 0,0 l/m 15,0 km/h (3 Bft) O-NO 67 0 min 0,000 mm 0,0 UV-I 0 W/m -1,3 C -2,3 C 19,3 km/h (3 Bft) 96,23 %
12.03.2017 19:04 3,9 C 69 % 1017,7 hPa 0,0 l/m 14,2 km/h (3 Bft) NO 49 0 min 0,000 mm 0,0 UV-I 0 W/m -1,3 C -1,8 C 19,3 km/h (3 Bft) 97,37 %
12.03.2017 19:06 3,8 C 69 % 1017,7 hPa 0,0 l/m 13,3 km/h (3 Bft) NO 56 0 min 0,000 mm 0,0 UV-I 0 W/m -1,4 C -1,4 C 17,7 km/h (3 Bft) 97,87 %
12.03.2017 19:08 3,8 C 69 % 1017,7 hPa 0,0 l/m 12,8 km/h (3 Bft) O-NO 58 0 min 0,000 mm 0,0 UV-I 0 W/m -1,4 C -1,1 C 20,9 km/h (4 Bft) 100,00 %
12.03.2017 19:10 3,8 C 69 % 1017,8 hPa 0,0 l/m 13,7 km/h (3 Bft) O 83 0 min 0,000 mm 0,0 UV-I 0 W/m -1,4 C -1,7 C 20,9 km/h (4 Bft) 94,00 %
12.03.2017 19:12 3,8 C 69 % 1017,7 hPa 0,0 l/m 14,7 km/h (3 Bft) NO 47 0 min 0,000 mm 0,0 UV-I 0 W/m -1,4 C -2,2 C 20,9 km/h (4 Bft) 100,00 %
12.03.2017 19:14 3,8 C 69 % 1017,8 hPa 0,0 l/m 16,6 km/h (3 Bft) NO 46 0 min 0,000 mm 0,0 UV-I 0 W/m -1,4 C -3,2 C 20,9 km/h (4 Bft) 100,00 %
12.03.2017 19:16 3,8 C 69 % 1017,8 hPa 0,0 l/m 17,9 km/h (3 Bft) NO 41 0 min 0,000 mm 0,0 UV-I 0 W/m -1,4 C -3,8 C 22,5 km/h (4 Bft) 100,00 %
12.03.2017 19:18 3,7 C 68 % 1017,8 hPa 0,0 l/m 16,3 km/h (3 Bft) NO 56 0 min 0,000 mm 0,0 UV-I 0 W/m -1,6 C -3,2 C 20,9 km/h (4 Bft) 100,00 %
12.03.2017 19:20 3,7 C 69 % 1017,8 hPa 0,0 l/m 16,8 km/h (3 Bft) NO 56 0 min 0,000 mm 0,0 UV-I 0 W/m -1,4 C -3,4 C 22,5 km/h (4 Bft) 100,00 %
12.03.2017 19:22 3,7 C 69 % 1017,8 hPa 0,0 l/m 17,1 km/h (3 Bft) O-NO 60 0 min 0,000 mm 0,0 UV-I 0 W/m -1,4 C -3,6 C 22,5 km/h (4 Bft) 100,00 %
12.03.2017 19:24 3,7 C 70 % 1017,9 hPa 0,0 l/m 15,9 km/h (3 Bft) NO 55 0 min 0,000 mm 0,0 UV-I 0 W/m -1,3 C -3,0 C 20,9 km/h (4 Bft) 100,00 %
12.03.2017 19:26 3,7 C 70 % 1017,9 hPa 0,0 l/m 18,0 km/h (3 Bft) NO 56 0 min 0,000 mm 0,0 UV-I 0 W/m -1,3 C -4,0 C 24,1 km/h (4 Bft) 95,74 %
12.03.2017 19:28 3,6 C 70 % 1017,9 hPa 0,0 l/m 15,9 km/h (3 Bft) O-NO 58 0 min 0,000 mm 0,0 UV-I 0 W/m -1,3 C -3,1 C 19,3 km/h (3 Bft) 98,00 %
12.03.2017 19:30 3,6 C 70 % 1017,9 hPa 0,0 l/m 13,7 km/h (3 Bft) NO 46 0 min 0,000 mm 0,0 UV-I 0 W/m -1,3 C -1,9 C 19,3 km/h (3 Bft) 94,29 %
12.03.2017 19:32 3,6 C 70 % 1017,9 hPa 0,0 l/m 15,0 km/h (3 Bft) O-NO 70 0 min 0,000 mm 0,0 UV-I 0 W/m -1,3 C -2,6 C 20,9 km/h (4 Bft) 96,43 %
12.03.2017 19:34 3,5 C 70 % 1018,0 hPa 0,0 l/m 14,8 km/h (3 Bft) O-NO 65 0 min 0,000 mm 0,0 UV-I 0 W/m -1,4 C -2,6 C 20,9 km/h (4 Bft) 98,00 %
12.03.2017 19:36 3,4 C 71 % 1017,9 hPa 0,0 l/m 12,0 km/h (2 Bft) O-NO 68 0 min 0,000 mm 0,0 UV-I 0 W/m -1,3 C -1,1 C 17,7 km/h (3 Bft) 97,37 %
12.03.2017 19:38 3,3 C 71 % 1018,0 hPa 0,0 l/m 11,3 km/h (2 Bft) O-NO 66 0 min 0,000 mm 0,0 UV-I 0 W/m -1,4 C -0,7 C 17,7 km/h (3 Bft) 98,21 %
12.03.2017 19:40 3,3 C 71 % 1017,9 hPa 0,0 l/m 9,9 km/h (2 Bft) NO 55 0 min 0,000 mm 0,0 UV-I 0 W/m -1,4 C 0,3 C 16,1 km/h (3 Bft) 97,37 %
12.03.2017 19:42 3,2 C 72 % 1017,9 hPa 0,0 l/m 8,8 km/h (2 Bft) O-NO 71 0 min 0,000 mm 0,0 UV-I 0 W/m -1,3 C 1,0 C 16,1 km/h (3 Bft) 97,87 %
12.03.2017 19:44 3,1 C 72 % 1018,0 hPa 0,0 l/m 8,8 km/h (2 Bft) O-NO 61 0 min 0,000 mm 0,0 UV-I 0 W/m -1,4 C 0,9 C 14,5 km/h (3 Bft) 98,00 %
12.03.2017 19:46 3,1 C 72 % 1018,0 hPa 0,0 l/m 11,3 km/h (2 Bft) NO 46 0 min 0,000 mm 0,0 UV-I 0 W/m -1,4 C -1,0 C 14,5 km/h (3 Bft) 97,56 %
12.03.2017 19:48 3,1 C 72 % 1018,0 hPa 0,0 l/m 13,6 km/h (3 Bft) NO 48 0 min 0,000 mm 0,0 UV-I 0 W/m -1,4 C -2,4 C 17,7 km/h (3 Bft) 92,86 %
12.03.2017 19:50 3,1 C 72 % 1018,0 hPa 0,0 l/m 11,6 km/h (2 Bft) NO 55 0 min 0,000 mm 0,0 UV-I 0 W/m -1,4 C -1,2 C 16,1 km/h (3 Bft) 95,35 %
12.03.2017 19:52 3,0 C 72 % 1018,0 hPa 0,0 l/m 8,9 km/h (2 Bft) O-NO 59 0 min 0,000 mm 0,0 UV-I 0 W/m -1,5 C 0,7 C 14,5 km/h (3 Bft) 95,83 %
12.03.2017 19:54 2,9 C 73 % 1018,0 hPa 0,0 l/m 9,0 km/h (2 Bft) O 92 0 min 0,000 mm 0,0 UV-I 0 W/m -1,5 C 0,5 C 14,5 km/h (3 Bft) 97,87 %
12.03.2017 19:56 2,9 C 73 % 1018,0 hPa 0,0 l/m 12,4 km/h (3 Bft) NO 37 0 min 0,000 mm 0,0 UV-I 0 W/m -1,5 C -1,9 C 17,7 km/h (3 Bft) 96,00 %
12.03.2017 19:58 2,9 C 73 % 1018,0 hPa 0,0 l/m 10,8 km/h (2 Bft) NO 55 0 min 0,000 mm 0,0 UV-I 0 W/m -1,5 C -0,8 C 16,1 km/h (3 Bft) 94,74 %
12.03.2017 20:00 2,9 C 73 % 1018,1 hPa 0,0 l/m 10,8 km/h (2 Bft) O-NO 59 0 min 0,000 mm 0,0 UV-I 0 W/m -1,5 C -0,8 C 16,1 km/h (3 Bft) 97,73 %
12.03.2017 20:03 2,8 C 73 % 1018,1 hPa 0,0 l/m 9,9 km/h (2 Bft) O-NO 63 0 min 0,026 mm 0,0 UV-I 0 W/m -1,5 C -0,3 C 14,5 km/h (3 Bft) 97,26 %
12.03.2017 20:04 2,8 C 73 % 1018,1 hPa 0,0 l/m 10,1 km/h (2 Bft) O-NO 61 0 min 0,000 mm 0,0 UV-I 0 W/m -1,5 C -0,4 C 14,5 km/h (3 Bft) 100,00 %
12.03.2017 20:06 2,8 C 74 % 1018,1 hPa 0,0 l/m 8,7 km/h (2 Bft) NO 55 0 min 0,000 mm 0,0 UV-I 0 W/m -1,4 C 0,7 C 11,3 km/h (2 Bft) 98,11 %
12.03.2017 20:08 2,7 C 74 % 1018,2 hPa 0,0 l/m 8,1 km/h (2 Bft) NO 55 0 min 0,000 mm 0,0 UV-I 0 W/m -1,5 C 1,1 C 12,9 km/h (3 Bft) 97,37 %
12.03.2017 20:10 2,7 C 74 % 1018,1 hPa 0,0 l/m 10,0 km/h (2 Bft) NO 56 0 min 0,000 mm 0,0 UV-I 0 W/m -1,5 C -0,5 C 16,1 km/h (3 Bft) 97,87 %
12.03.2017 20:12 2,7 C 74 % 1018,2 hPa 0,0 l/m 8,4 km/h (2 Bft) NO 38 0 min 0,000 mm 0,0 UV-I 0 W/m -1,5 C 0,8 C 12,9 km/h (3 Bft) 94,34 %
12.03.2017 20:14 2,7 C 74 % 1018,1 hPa 0,0 l/m 9,1 km/h (2 Bft) NO 38 0 min 0,000 mm 0,0 UV-I 0 W/m -1,5 C 0,2 C 12,9 km/h (3 Bft) 97,56 %
12.03.2017 20:16 2,6 C 74 % 1018,2 hPa 0,0 l/m 8,3 km/h (2 Bft) NO 46 0 min 0,000 mm 0,0 UV-I 0 W/m -1,6 C 0,8 C 12,9 km/h (3 Bft) 97,73 %
12.03.2017 20:18 2,6 C 74 % 1018,2 hPa 0,0 l/m 7,5 km/h (2 Bft) N-NO 32 0 min 0,000 mm 0,0 UV-I 0 W/m -1,6 C 1,5 C 12,9 km/h (3 Bft) 96,43 %
12.03.2017 20:20 2,6 C 74 % 1018,3 hPa 0,0 l/m 7,8 km/h (2 Bft) O-NO 65 0 min 0,000 mm 0,0 UV-I 0 W/m -1,6 C 1,3 C 12,9 km/h (3 Bft) 97,56 %
12.03.2017 20:22 2,5 C 74 % 1018,3 hPa 0,0 l/m 7,8 km/h (2 Bft) NO 51 0 min 0,000 mm 0,0 UV-I 0 W/m -1,7 C 1,2 C 12,9 km/h (3 Bft) 98,11 %
12.03.2017 20:24 2,5 C 74 % 1018,3 hPa 0,0 l/m 9,2 km/h (2 Bft) NO 55 0 min 0,000 mm 0,0 UV-I 0 W/m -1,7 C -0,1 C 14,5 km/h (3 Bft) 95,12 %
12.03.2017 20:26 2,5 C 74 % 1018,3 hPa 0,0 l/m 8,9 km/h (2 Bft) NO 44 0 min 0,000 mm 0,0 UV-I 0 W/m -1,7 C 0,2 C 12,9 km/h (3 Bft) 94,34 %
12.03.2017 20:28 2,5 C 74 % 1018,4 hPa 0,0 l/m 10,4 km/h (2 Bft) O-NO 65 0 min 0,000 mm 0,0 UV-I 0 W/m -1,7 C -1,0 C 16,1 km/h (3 Bft) 92,68 %
12.03.2017 20:30 2,5 C 73 % 1018,4 hPa 0,0 l/m 8,5 km/h (2 Bft) O-NO 57 0 min 0,000 mm 0,0 UV-I 0 W/m -1,8 C 0,5 C 12,9 km/h (3 Bft) 91,11 %
12.03.2017 20:32 2,5 C 74 % 1018,4 hPa 0,0 l/m 8,8 km/h (2 Bft) O-NO 61 0 min 0,000 mm 0,0 UV-I 0 W/m -1,7 C 0,3 C 14,5 km/h (3 Bft) 98,08 %
12.03.2017 20:34 2,4 C 74 % 1018,4 hPa 0,0 l/m 9,3 km/h (2 Bft) O-NO 61 0 min 0,000 mm 0,0 UV-I 0 W/m -1,7 C -0,2 C 14,5 km/h (3 Bft) 90,48 %
12.03.2017 20:36 2,4 C 74 % 1018,4 hPa 0,0 l/m 8,3 km/h (2 Bft) NO 55 0 min 0,000 mm 0,0 UV-I 0 W/m -1,7 C 0,6 C 11,3 km/h (2 Bft) 96,00 %
12.03.2017 20:38 2,4 C 73 % 1018,4 hPa 0,0 l/m 9,0 km/h (2 Bft) N-NO 33 0 min 0,000 mm 0,0 UV-I 0 W/m -1,9 C 0,0 C 12,9 km/h (3 Bft) 94,00 %
12.03.2017 20:40 2,3 C 73 % 1018,4 hPa 0,0 l/m 10,9 km/h (2 Bft) O-NO 57 0 min 0,000 mm 0,0 UV-I 0 W/m -2,0 C -1,6 C 16,1 km/h (3 Bft) 88,57 %
12.03.2017 20:42 2,3 C 73 % 1018,4 hPa 0,0 l/m 11,2 km/h (2 Bft) O-NO 68 0 min 0,000 mm 0,0 UV-I 0 W/m -2,0 C -1,8 C 16,1 km/h (3 Bft) 95,12 %
12.03.2017 20:44 2,3 C 73 % 1018,4 hPa 0,0 l/m 11,9 km/h (2 Bft) NO 46 0 min 0,000 mm 0,0 UV-I 0 W/m -2,0 C -2,3 C 19,3 km/h (3 Bft) 95,12 %
12.03.2017 20:46 2,3 C 74 % 1018,4 hPa 0,0 l/m 10,6 km/h (2 Bft) NO 55 0 min 0,000 mm 0,0 UV-I 0 W/m -1,8 C -1,4 C 16,1 km/h (3 Bft) 95,38 %
12.03.2017 20:48 2,3 C 73 % 1018,4 hPa 0,0 l/m 9,5 km/h (2 Bft) NO 50 0 min 0,000 mm 0,0 UV-I 0 W/m -2,0 C -0,5 C 14,5 km/h (3 Bft) 94,34 %
12.03.2017 20:50 2,2 C 73 % 1018,4 hPa 0,0 l/m 8,8 km/h (2 Bft) O-NO 57 0 min 0,000 mm 0,0 UV-I 0 W/m -2,1 C -0,0 C 14,5 km/h (3 Bft) 90,24 %
12.03.2017 20:52 2,2 C 74 % 1018,4 hPa 0,0 l/m 8,5 km/h (2 Bft) O-NO 61 0 min 0,000 mm 0,0 UV-I 0 W/m -1,9 C 0,2 C 12,9 km/h (3 Bft) 94,34 %
12.03.2017 20:54 2,2 C 74 % 1018,4 hPa 0,0 l/m 9,2 km/h (2 Bft) NO 54 0 min 0,000 mm 0,0 UV-I 0 W/m -1,9 C -0,4 C 14,5 km/h (3 Bft) 97,14 %
12.03.2017 20:56 2,1 C 74 % 1018,5 hPa 0,0 l/m 9,5 km/h (2 Bft) O-NO 59 0 min 0,000 mm 0,0 UV-I 0 W/m -2,0 C -0,7 C 14,5 km/h (3 Bft) 98,11 %
12.03.2017 20:58 2,1 C 74 % 1018,5 hPa 0,0 l/m 9,3 km/h (2 Bft) O-NO 67 0 min 0,000 mm 0,0 UV-I 0 W/m -2,0 C -0,6 C 16,1 km/h (3 Bft) 94,00 %
12.03.2017 21:00 2,1 C 73 % 1018,5 hPa 0,0 l/m 7,8 km/h (2 Bft) O-NO 59 0 min 0,000 mm 0,0 UV-I 0 W/m -2,2 C 0,7 C 11,3 km/h (2 Bft) 97,56 %
12.03.2017 21:02 2,1 C 73 % 1018,5 hPa 0,0 l/m 9,1 km/h (2 Bft) NO 41 0 min 0,025 mm 0,0 UV-I 0 W/m -2,2 C -0,4 C 12,9 km/h (3 Bft) 93,18 %
12.03.2017 21:04 2,1 C 73 % 1018,5 hPa 0,0 l/m 9,4 km/h (2 Bft) NO 54 0 min 0,000 mm 0,0 UV-I 0 W/m -2,2 C -0,7 C 16,1 km/h (3 Bft) 98,31 %
12.03.2017 21:06 2,1 C 73 % 1018,6 hPa 0,0 l/m 8,2 km/h (2 Bft) NO 42 0 min 0,000 mm 0,0 UV-I 0 W/m -2,2 C 0,4 C 14,5 km/h (3 Bft) 95,12 %
12.03.2017 21:08 2,0 C 73 % 1018,6 hPa 0,0 l/m 9,3 km/h (2 Bft) NO 55 0 min 0,000 mm 0,0 UV-I 0 W/m -2,3 C -0,7 C 12,9 km/h (3 Bft) 97,78 %
12.03.2017 21:10 2,0 C 73 % 1018,6 hPa 0,0 l/m 7,6 km/h (2 Bft) NO 55 0 min 0,000 mm 0,0 UV-I 0 W/m -2,3 C 0,8 C 16,1 km/h (3 Bft) 100,00 %
12.03.2017 21:12 2,0 C 73 % 1018,6 hPa 0,0 l/m 8,2 km/h (2 Bft) NO 38 0 min 0,000 mm 0,0 UV-I 0 W/m -2,3 C 0,3 C 12,9 km/h (3 Bft) 97,78 %
12.03.2017 21:14 1,9 C 73 % 1018,7 hPa 0,0 l/m 8,1 km/h (2 Bft) NO 49 0 min 0,000 mm 0,0 UV-I 0 W/m -2,4 C 0,3 C 12,9 km/h (3 Bft) 96,00 %
12.03.2017 21:16 1,9 C 74 % 1018,6 hPa 0,0 l/m 8,3 km/h (2 Bft) NO 55 0 min 0,000 mm 0,0 UV-I 0 W/m -2,2 C 0,1 C 14,5 km/h (3 Bft) 97,56 %
12.03.2017 21:18 1,9 C 73 % 1018,7 hPa 0,0 l/m 9,3 km/h (2 Bft) O-NO 65 0 min 0,000 mm 0,0 UV-I 0 W/m -2,4 C -0,8 C 14,5 km/h (3 Bft) 96,23 %
12.03.2017 21:20 1,9 C 73 % 1018,7 hPa 0,0 l/m 10,3 km/h (2 Bft) O-NO 65 0 min 0,000 mm 0,0 UV-I 0 W/m -2,4 C -1,6 C 16,1 km/h (3 Bft) 100,00 %
12.03.2017 21:22 1,9 C 73 % 1018,7 hPa 0,0 l/m 9,1 km/h (2 Bft) NO 38 0 min 0,000 mm 0,0 UV-I 0 W/m -2,4 C -0,6 C 14,5 km/h (3 Bft) 97,73 %
12.03.2017 21:24 1,8 C 73 % 1018,6 hPa 0,0 l/m 10,2 km/h (2 Bft) NO 49 0 min 0,000 mm 0,0 UV-I 0 W/m -2,5 C -1,6 C 16,1 km/h (3 Bft) 98,11 %
12.03.2017 21:26 1,8 C 74 % 1018,7 hPa 0,0 l/m 9,6 km/h (2 Bft) O-NO 61 0 min 0,000 mm 0,0 UV-I 0 W/m -2,3 C -1,1 C 17,7 km/h (3 Bft) 95,45 %
12.03.2017 21:28 1,8 C 74 % 1018,7 hPa 0,0 l/m 8,5 km/h (2 Bft) NO 49 0 min 0,000 mm 0,0 UV-I 0 W/m -2,3 C -0,2 C 14,5 km/h (3 Bft) 97,56 %
12.03.2017 21:30 1,7 C 74 % 1018,7 hPa 0,0 l/m 8,9 km/h (2 Bft) O-NO 57 0 min 0,000 mm 0,0 UV-I 0 W/m -2,4 C -0,7 C 16,1 km/h (3 Bft) 94,64 %
12.03.2017 21:32 1,7 C 74 % 1018,7 hPa 0,0 l/m 8,9 km/h (2 Bft) O-NO 63 0 min 0,000 mm 0,0 UV-I 0 W/m -2,4 C -0,7 C 16,1 km/h (3 Bft) 97,37 %
12.03.2017 21:34 1,7 C 73 % 1018,7 hPa 0,0 l/m 10,1 km/h (2 Bft) NO 40 0 min 0,000 mm 0,0 UV-I 0 W/m -2,6 C -1,7 C 14,5 km/h (3 Bft) 96,61 %
12.03.2017 21:36 1,7 C 74 % 1018,7 hPa 0,0 l/m 9,3 km/h (2 Bft) NO 38 0 min 0,000 mm 0,0 UV-I 0 W/m -2,4 C -1,0 C 14,5 km/h (3 Bft) 97,56 %
12.03.2017 21:38 1,7 C 74 % 1018,7 hPa 0,0 l/m 10,8 km/h (2 Bft) O-NO 59 0 min 0,000 mm 0,0 UV-I 0 W/m -2,4 C -2,2 C 19,3 km/h (3 Bft) 93,62 %
12.03.2017 21:40 1,7 C 74 % 1018,7 hPa 0,0 l/m 8,9 km/h (2 Bft) NO 55 0 min 0,000 mm 0,0 UV-I 0 W/m -2,4 C -0,7 C 12,9 km/h (3 Bft) 100,00 %
12.03.2017 21:42 1,7 C 74 % 1018,7 hPa 0,0 l/m 8,8 km/h (2 Bft) NO 45 0 min 0,000 mm 0,0 UV-I 0 W/m -2,4 C -0,6 C 14,5 km/h (3 Bft) 95,74 %
12.03.2017 21:44 1,7 C 73 % 1018,8 hPa 0,0 l/m 10,4 km/h (2 Bft) O-NO 71 0 min 0,000 mm 0,0 UV-I 0 W/m -2,6 C -1,9 C 14,5 km/h (3 Bft) 97,37 %
12.03.2017 21:46 1,7 C 74 % 1018,8 hPa 0,0 l/m 11,0 km/h (2 Bft) NO 55 0 min 0,000 mm 0,0 UV-I 0 W/m -2,4 C -2,3 C 14,5 km/h (3 Bft) 96,23 %
12.03.2017 21:48 1,6 C 74 % 1018,8 hPa 0,0 l/m 11,2 km/h (2 Bft) O-NO 57 0 min 0,000 mm 0,0 UV-I 0 W/m -2,5 C -2,6 C 14,5 km/h (3 Bft) 100,00 %
12.03.2017 21:50 1,6 C 74 % 1018,8 hPa 0,0 l/m 10,3 km/h (2 Bft) O-NO 63 0 min 0,000 mm 0,0 UV-I 0 W/m -2,5 C -1,9 C 14,5 km/h (3 Bft) 96,15 %
12.03.2017 21:52 1,6 C 74 % 1018,8 hPa 0,0 l/m 9,2 km/h (2 Bft) O-NO 61 0 min 0,000 mm 0,0 UV-I 0 W/m -2,5 C -1,0 C 12,9 km/h (3 Bft) 100,00 %
12.03.2017 21:54 1,6 C 75 % 1018,9 hPa 0,0 l/m 9,6 km/h (2 Bft) NO 44 0 min 0,000 mm 0,0 UV-I 0 W/m -2,3 C -1,4 C 16,1 km/h (3 Bft) 100,00 %
12.03.2017 21:56 1,5 C 74 % 1018,9 hPa 0,0 l/m 10,1 km/h (2 Bft) NO 51 0 min 0,000 mm 0,0 UV-I 0 W/m -2,6 C -1,9 C 14,5 km/h (3 Bft) 97,87 %
12.03.2017 21:58 1,4 C 75 % 1018,9 hPa 0,0 l/m 7,0 km/h (2 Bft) O-NO 61 0 min 0,000 mm 0,0 UV-I 0 W/m -2,5 C 0,8 C 11,3 km/h (2 Bft) 100,00 %
12.03.2017 22:00 1,4 C 75 % 1018,9 hPa 0,0 l/m 6,6 km/h (2 Bft) NO 53 0 min 0,000 mm 0,0 UV-I 0 W/m -2,5 C 1,2 C 9,7 km/h (2 Bft) 100,00 %
12.03.2017 22:02 1,3 C 75 % 1019,0 hPa 0,0 l/m 6,0 km/h (2 Bft) NO 55 0 min 0,026 mm 0,0 UV-I 0 W/m -2,6 C 1,3 C 9,7 km/h (2 Bft) 97,56 %
12.03.2017 22:04 1,3 C 75 % 1019,0 hPa 0,0 l/m 7,1 km/h (2 Bft) NO 40 0 min 0,000 mm 0,0 UV-I 0 W/m -2,6 C 0,6 C 9,7 km/h (2 Bft) 100,00 %
12.03.2017 22:06 1,2 C 75 % 1019,0 hPa 0,0 l/m 8,2 km/h (2 Bft) NO 49 0 min 0,000 mm 0,0 UV-I 0 W/m -2,7 C -0,6 C 12,9 km/h (3 Bft) 97,56 %
12.03.2017 22:08 1,3 C 75 % 1019,0 hPa 0,0 l/m 7,8 km/h (2 Bft) O-NO 69 0 min 0,000 mm 0,0 UV-I 0 W/m -2,6 C -0,1 C 9,7 km/h (2 Bft) 100,00 %
12.03.2017 22:10 1,3 C 75 % 1019,0 hPa 0,0 l/m 6,6 km/h (2 Bft) O-NO 64 0 min 0,000 mm 0,0 UV-I 0 W/m -2,6 C 1,1 C 9,7 km/h (2 Bft) 97,87 %
12.03.2017 22:12 1,2 C 75 % 1018,9 hPa 0,0 l/m 6,7 km/h (2 Bft) NO 37 0 min 0,000 mm 0,0 UV-I 0 W/m -2,7 C 0,9 C 12,9 km/h (3 Bft) 100,00 %
12.03.2017 22:14 1,2 C 76 % 1019,0 hPa 0,0 l/m 7,1 km/h (2 Bft) O-NO 59 0 min 0,000 mm 0,0 UV-I 0 W/m -2,5 C 0,5 C 11,3 km/h (2 Bft) 97,06 %
12.03.2017 22:16 1,2 C 76 % 1019,0 hPa 0,0 l/m 6,5 km/h (2 Bft) N-NO 33 0 min 0,000 mm 0,0 UV-I 0 W/m -2,5 C 1,1 C 9,7 km/h (2 Bft) 97,73 %
12.03.2017 22:18 1,2 C 76 % 1019,1 hPa 0,0 l/m 6,2 km/h (2 Bft) NO 44 0 min 0,000 mm 0,0 UV-I 0 W/m -2,5 C 1,2 C 9,7 km/h (2 Bft) 97,87 %
12.03.2017 22:20 1,1 C 76 % 1019,1 hPa 0,0 l/m 7,7 km/h (2 Bft) NO 45 0 min 0,000 mm 0,0 UV-I 0 W/m -2,6 C -0,2 C 14,5 km/h (3 Bft) 98,00 %
12.03.2017 22:22 1,1 C 76 % 1019,1 hPa 0,0 l/m 6,9 km/h (2 Bft) NO 35 0 min 0,000 mm 0,0 UV-I 0 W/m -2,6 C 0,6 C 9,7 km/h (2 Bft) 97,87 %
12.03.2017 22:24 1,1 C 76 % 1019,1 hPa 0,0 l/m 7,0 km/h (2 Bft) NO 46 0 min 0,000 mm 0,0 UV-I 0 W/m -2,6 C 0,5 C 12,9 km/h (3 Bft) 96,30 %
12.03.2017 22:26 1,1 C 76 % 1019,1 hPa 0,0 l/m 6,6 km/h (2 Bft) NO 53 0 min 0,000 mm 0,0 UV-I 0 W/m -2,6 C 0,9 C 8,0 km/h (2 Bft) 98,51 %
12.03.2017 22:28 1,1 C 76 % 1019,1 hPa 0,0 l/m 7,6 km/h (2 Bft) NO 47 0 min 0,000 mm 0,0 UV-I 0 W/m -2,6 C -0,1 C 11,3 km/h (2 Bft) 97,37 %
12.03.2017 22:30 1,0 C 76 % 1019,1 hPa 0,0 l/m 6,4 km/h (2 Bft) O-NO 60 0 min 0,000 mm 0,0 UV-I 0 W/m -2,7 C 1,0 C 8,0 km/h (2 Bft) 95,24 %
12.03.2017 22:32 1,0 C 76 % 1019,1 hPa 0,0 l/m 6,3 km/h (2 Bft) O-NO 74 0 min 0,000 mm 0,0 UV-I 0 W/m -2,7 C 1,0 C 9,7 km/h (2 Bft) 98,21 %
12.03.2017 22:34 0,9 C 77 % 1019,1 hPa 0,0 l/m 7,4 km/h (2 Bft) NO 46 0 min 0,000 mm 0,0 UV-I 0 W/m -2,7 C -0,1 C 9,7 km/h (2 Bft) 97,73 %
12.03.2017 22:36 0,9 C 76 % 1019,1 hPa 0,0 l/m 6,8 km/h (2 Bft) O-NO 60 0 min 0,000 mm 0,0 UV-I 0 W/m -2,8 C 0,5 C 9,7 km/h (2 Bft) 93,62 %
12.03.2017 22:38 1,0 C 76 % 1019,1 hPa 0,0 l/m 6,4 km/h (2 Bft) NO 51 0 min 0,000 mm 0,0 UV-I 0 W/m -2,7 C 1,0 C 9,7 km/h (2 Bft) 96,00 %
12.03.2017 22:40 0,9 C 76 % 1019,1 hPa 0,0 l/m 7,1 km/h (2 Bft) NO 54 0 min 0,000 mm 0,0 UV-I 0 W/m -2,8 C 0,2 C 9,7 km/h (2 Bft) 97,87 %
12.03.2017 22:42 1,0 C 76 % 1019,2 hPa 0,0 l/m 7,6 km/h (2 Bft) O-NO 64 0 min 0,000 mm 0,0 UV-I 0 W/m -2,7 C -0,2 C 9,7 km/h (2 Bft) 94,74 %
12.03.2017 22:44 1,0 C 76 % 1019,2 hPa 0,0 l/m 9,1 km/h (2 Bft) NO 51 0 min 0,000 mm 0,0 UV-I 0 W/m -2,7 C -1,6 C 12,9 km/h (3 Bft) 94,64 %
12.03.2017 22:46 1,0 C 76 % 1019,2 hPa 0,0 l/m 7,9 km/h (2 Bft) O-NO 57 0 min 0,000 mm 0,0 UV-I 0 W/m -2,7 C -0,5 C 12,9 km/h (3 Bft) 98,00 %
12.03.2017 22:48 1,0 C 76 % 1019,2 hPa 0,0 l/m 6,8 km/h (2 Bft) O-NO 59 0 min 0,000 mm 0,0 UV-I 0 W/m -2,7 C 0,6 C 12,9 km/h (3 Bft) 94,74 %
12.03.2017 22:50 1,0 C 77 % 1019,2 hPa 0,0 l/m 7,4 km/h (2 Bft) O-NO 59 0 min 0,000 mm 0,0 UV-I 0 W/m -2,6 C -0,0 C 12,9 km/h (3 Bft) 95,74 %
12.03.2017 22:52 1,0 C 76 % 1019,2 hPa 0,0 l/m 8,2 km/h (2 Bft) O-NO 62 0 min 0,000 mm 0,0 UV-I 0 W/m -2,7 C -0,8 C 9,7 km/h (2 Bft) 94,00 %
12.03.2017 22:54 1,0 C 77 % 1019,2 hPa 0,0 l/m 8,2 km/h (2 Bft) NO 49 0 min 0,000 mm 0,0 UV-I 0 W/m -2,6 C -0,8 C 14,5 km/h (3 Bft) 97,87 %
12.03.2017 22:56 1,0 C 77 % 1019,2 hPa 0,0 l/m 8,5 km/h (2 Bft) O-NO 58 0 min 0,000 mm 0,0 UV-I 0 W/m -2,6 C -1,1 C 14,5 km/h (3 Bft) 96,00 %
12.03.2017 22:58 1,0 C 77 % 1019,2 hPa 0,0 l/m 9,0 km/h (2 Bft) NO 50 0 min 0,000 mm 0,0 UV-I 0 W/m -2,6 C -1,5 C 14,5 km/h (3 Bft) 97,56 %
12.03.2017 23:00 0,9 C 77 % 1019,2 hPa 0,0 l/m 9,3 km/h (2 Bft) O-NO 65 0 min 0,000 mm 0,0 UV-I 0 W/m -2,7 C -1,9 C 12,9 km/h (3 Bft) 97,73 %
12.03.2017 23:02 0,9 C 77 % 1019,1 hPa 0,0 l/m 9,1 km/h (2 Bft) O 83 0 min 0,025 mm 0,0 UV-I 0 W/m -2,7 C -1,7 C 12,9 km/h (3 Bft) 96,23 %
12.03.2017 23:04 0,9 C 77 % 1019,2 hPa 0,0 l/m 8,4 km/h (2 Bft) NO 53 0 min 0,000 mm 0,0 UV-I 0 W/m -2,7 C -1,1 C 11,3 km/h (2 Bft) 97,56 %
12.03.2017 23:06 0,8 C 78 % 1019,2 hPa 0,0 l/m 8,0 km/h (2 Bft) NO 41 0 min 0,000 mm 0,0 UV-I 0 W/m -2,6 C -0,8 C 11,3 km/h (2 Bft) 98,11 %
12.03.2017 23:08 0,8 C 77 % 1019,2 hPa 0,0 l/m 6,6 km/h (2 Bft) NO 55 0 min 0,000 mm 0,0 UV-I 0 W/m -2,8 C 0,6 C 9,7 km/h (2 Bft) 100,00 %
12.03.2017 23:10 0,8 C 78 % 1019,2 hPa 0,0 l/m 5,7 km/h (1 Bft) O-NO 57 0 min 0,000 mm 0,0 UV-I 0 W/m -2,6 C 0,8 C 8,0 km/h (2 Bft) 96,00 %
12.03.2017 23:12 0,8 C 77 % 1019,2 hPa 0,0 l/m 5,7 km/h (1 Bft) NO 37 0 min 0,000 mm 0,0 UV-I 0 W/m -2,8 C 0,8 C 8,0 km/h (2 Bft) 100,00 %
12.03.2017 23:14 0,7 C 78 % 1019,3 hPa 0,0 l/m 6,5 km/h (2 Bft) O-NO 73 0 min 0,000 mm 0,0 UV-I 0 W/m -2,7 C 0,6 C 9,7 km/h (2 Bft) 100,00 %
12.03.2017 23:16 0,7 C 78 % 1019,3 hPa 0,0 l/m 5,3 km/h (1 Bft) NO 40 0 min 0,000 mm 0,0 UV-I 0 W/m -2,7 C 0,7 C 8,0 km/h (2 Bft) 100,00 %
12.03.2017 23:18 0,7 C 77 % 1019,3 hPa 0,0 l/m 5,6 km/h (1 Bft) NO 48 0 min 0,000 mm 0,0 UV-I 0 W/m -2,9 C 0,7 C 9,7 km/h (2 Bft) 95,45 %
12.03.2017 23:20 0,7 C 77 % 1019,3 hPa 0,0 l/m 5,4 km/h (1 Bft) NO 44 0 min 0,000 mm 0,0 UV-I 0 W/m -2,9 C 0,7 C 9,7 km/h (2 Bft) 100,00 %
12.03.2017 23:22 0,7 C 77 % 1019,3 hPa 0,0 l/m 6,3 km/h (2 Bft) O-NO 60 0 min 0,000 mm 0,0 UV-I 0 W/m -2,9 C 0,7 C 8,0 km/h (2 Bft) 96,00 %
12.03.2017 23:24 0,7 C 77 % 1019,3 hPa 0,0 l/m 7,3 km/h (2 Bft) O-NO 61 0 min 0,000 mm 0,0 UV-I 0 W/m -2,9 C -0,2 C 9,7 km/h (2 Bft) 98,00 %
12.03.2017 23:26 0,7 C 77 % 1019,3 hPa 0,0 l/m 7,1 km/h (2 Bft) NO 54 0 min 0,000 mm 0,0 UV-I 0 W/m -2,9 C -0,0 C 9,7 km/h (2 Bft) 100,00 %
12.03.2017 23:28 0,7 C 78 % 1019,4 hPa 0,0 l/m 5,6 km/h (1 Bft) O-NO 65 0 min 0,000 mm 0,0 UV-I 0 W/m -2,7 C 0,7 C 8,0 km/h (2 Bft) 96,00 %
12.03.2017 23:30 0,7 C 78 % 1019,4 hPa 0,0 l/m 5,4 km/h (1 Bft) O-NO 61 0 min 0,000 mm 0,0 UV-I 0 W/m -2,7 C 0,7 C 6,4 km/h (2 Bft) 97,14 %
12.03.2017 23:32 0,6 C 78 % 1019,4 hPa 0,0 l/m 5,2 km/h (1 Bft) NO 53 0 min 0,000 mm 0,0 UV-I 0 W/m -2,8 C 0,6 C 8,0 km/h (2 Bft) 96,43 %
12.03.2017 23:34 0,6 C 79 % 1019,4 hPa 0,0 l/m 4,5 km/h (1 Bft) NO 49 0 min 0,000 mm 0,0 UV-I 0 W/m -2,6 C 0,6 C 8,0 km/h (2 Bft) 100,00 %
12.03.2017 23:36 0,6 C 79 % 1019,5 hPa 0,0 l/m 4,1 km/h (1 Bft) NO 49 0 min 0,000 mm 0,0 UV-I 0 W/m -2,6 C 0,6 C 4,8 km/h (1 Bft) 97,14 %
12.03.2017 23:38 0,5 C 79 % 1019,5 hPa 0,0 l/m 4,5 km/h (1 Bft) NO 51 0 min 0,000 mm 0,0 UV-I 0 W/m -2,7 C 0,5 C 8,0 km/h (2 Bft) 97,56 %
12.03.2017 23:40 0,4 C 79 % 1019,5 hPa 0,0 l/m 4,7 km/h (1 Bft) NO 53 0 min 0,000 mm 0,0 UV-I 0 W/m -2,8 C 0,4 C 6,4 km/h (2 Bft) 97,56 %
12.03.2017 23:42 0,4 C 79 % 1019,5 hPa 0,0 l/m 3,4 km/h (1 Bft) NO 55 0 min 0,000 mm 0,0 UV-I 0 W/m -2,8 C 0,4 C 4,8 km/h (1 Bft) 97,62 %
12.03.2017 23:44 0,4 C 79 % 1019,5 hPa 0,0 l/m 5,5 km/h (1 Bft) O-NO 58 0 min 0,000 mm 0,0 UV-I 0 W/m -2,8 C 0,4 C 12,9 km/h (3 Bft) 96,36 %
12.03.2017 23:46 0,4 C 79 % 1019,5 hPa 0,0 l/m 5,3 km/h (1 Bft) NO 53 0 min 0,000 mm 0,0 UV-I 0 W/m -2,8 C 0,4 C 8,0 km/h (2 Bft) 94,92 %
12.03.2017 23:48 0,4 C 79 % 1019,5 hPa 0,0 l/m 4,7 km/h (1 Bft) O-NO 63 0 min 0,000 mm 0,0 UV-I 0 W/m -2,8 C 0,4 C 6,4 km/h (2 Bft) 92,31 %
12.03.2017 23:50 0,4 C 79 % 1019,5 hPa 0,0 l/m 5,3 km/h (1 Bft) O-NO 62 0 min 0,000 mm 0,0 UV-I 0 W/m -2,8 C 0,4 C 8,0 km/h (2 Bft) 98,00 %
12.03.2017 23:52 0,4 C 79 % 1019,6 hPa 0,0 l/m 5,0 km/h (1 Bft) NO 54 0 min 0,000 mm 0,0 UV-I 0 W/m -2,8 C 0,4 C 6,4 km/h (2 Bft) 95,92 %
12.03.2017 23:54 0,4 C 79 % 1019,5 hPa 0,0 l/m 4,1 km/h (1 Bft) O-NO 57 0 min 0,000 mm 0,0 UV-I 0 W/m -2,8 C 0,4 C 6,4 km/h (2 Bft) 97,44 %
12.03.2017 23:56 0,4 C 79 % 1019,6 hPa 0,0 l/m 4,2 km/h (1 Bft) NO 53 0 min 0,000 mm 0,0 UV-I 0 W/m -2,8 C 0,4 C 6,4 km/h (2 Bft) 97,87 %
12.03.2017 23:58 0,4 C 79 % 1019,5 hPa 0,0 l/m 4,8 km/h (1 Bft) NO 48 0 min 0,000 mm 0,0 UV-I 0 W/m -2,8 C 0,4 C 6,4 km/h (2 Bft) 97,87 %
_ Min-Zeit 06:56 15:36 16:36 - 02:44 - - - - - - 23:18 09:32 02:44 13:40
Minimum _ -0,7 C 52 % 1016,8 hPa - 0,0 km/h (0 Bft) - - - - - - -2,9 C -5,5 C 0,0 km/h (0 Bft) 85,11 %
_ Max-Zeit 12:38 07:10 00:00 00:00 12:36 - - 16:04 13:00 12:10 12:36 10:38 12:22 13:18 00:00
Maximum _ 7,8 C 94 % 1020,2 hPa 0,0 l/m 26,3 km/h
N-NO (4 Bft)
- - 4 min 0,355 mm 2,3 UV-I 766 W/m 2,7 C 3,6 C 35,4 km/h
NO (5 Bft)
100,00 %
Durchschnitt _ 3,4 C 76 % 1018,5 hPa #0,0 l/m 11,2 km/h (2 Bft) O-NO - #11:06 h #2,540 mm 1,5 UV-I 385 W/m -0,6 C -0,3 C 16,0 km/h (3 Bft) 96,86 %